Time,TemperatureF,DewpointF,PressureIn,WindDirection,WindDirectionDegrees,WindSpeedMPH,WindSpeedGustMPH,Humidity,HourlyPrecipIn,Conditions,Clouds,dailyrainin,SoftwareType,DateUTC
2013-01-18 00:00:00,37.0,33.6,30.02,North,9,1.0,4.0,87,0.01,,,0.01,meteohub,2013-01-18 05:00:00,
2013-01-18 00:01:00,37.0,33.6,30.02,North,9,1.0,4.0,87,0.01,,,0.01,meteohub,2013-01-18 05:01:00,
2013-01-18 00:03:00,37.0,33.6,30.01,North,9,1.0,4.0,87,0.01,,,0.01,meteohub,2013-01-18 05:03:00,
2013-01-18 00:05:00,37.0,33.6,30.00,North,9,0.0,4.0,87,0.01,,,0.00,meteohub,2013-01-18 05:05:00,
2013-01-18 00:06:00,37.0,33.6,30.00,North,9,2.0,4.0,87,0.01,,,0.00,meteohub,2013-01-18 05:06:00,
2013-01-18 00:07:00,37.0,33.6,30.00,North,9,2.0,4.0,87,0.01,,,0.00,meteohub,2013-01-18 05:07:00,
2013-01-18 00:08:00,37.0,33.6,29.99,North,9,2.0,4.0,87,0.01,,,0.00,meteohub,2013-01-18 05:08:00,
2013-01-18 00:10:00,37.0,33.6,29.99,NNE,24,2.0,4.0,87,0.01,,,0.00,meteohub,2013-01-18 05:10:00,
2013-01-18 00:12:00,37.0,33.6,29.99,NNE,24,0.0,3.0,87,0.01,,,0.00,meteohub,2013-01-18 05:12:00,
2013-01-18 00:13:00,37.0,33.6,29.99,NNE,24,1.0,3.0,87,0.01,,,0.00,meteohub,2013-01-18 05:13:00,
2013-01-18 00:17:00,37.0,33.6,30.00,NNE,24,1.0,3.0,87,0.00,,,0.00,meteohub,2013-01-18 05:17:00,
2013-01-18 00:19:00,37.0,33.6,30.01,NNE,15,0.0,3.0,87,0.00,,,0.00,meteohub,2013-01-18 05:19:00,
2013-01-18 00:22:00,37.0,33.6,30.00,NNE,15,0.0,3.0,87,0.00,,,0.00,meteohub,2013-01-18 05:22:00,
2013-01-18 00:24:00,37.0,33.6,30.01,NNE,15,0.0,3.0,87,0.00,,,0.00,meteohub,2013-01-18 05:24:00,
2013-01-18 00:27:00,37.2,34.0,30.02,NNE,15,0.0,2.0,88,0.00,,,0.00,meteohub,2013-01-18 05:27:00,
2013-01-18 00:30:00,37.2,34.0,30.01,NNE,15,0.0,1.0,88,0.00,,,0.00,meteohub,2013-01-18 05:30:00,
2013-01-18 00:32:00,37.2,34.0,30.00,NNE,14,0.0,1.0,88,0.00,,,0.00,meteohub,2013-01-18 05:32:00,
2013-01-18 00:33:00,37.2,34.0,30.00,NNE,14,0.0,1.0,88,0.00,,,0.00,meteohub,2013-01-18 05:33:00,
2013-01-18 00:36:00,37.2,34.0,30.02,NNE,14,0.0,1.0,88,0.00,,,0.00,meteohub,2013-01-18 05:36:00,
2013-01-18 00:37:00,37.2,34.0,30.02,NNE,14,0.0,1.0,88,0.00,,,0.00,meteohub,2013-01-18 05:37:00,
2013-01-18 00:38:00,37.2,34.0,30.02,NNE,14,0.0,1.0,88,0.00,,,0.00,meteohub,2013-01-18 05:38:00,
2013-01-18 00:41:00,37.2,34.0,30.00,NNE,14,0.0,1.0,88,0.00,,,0.00,meteohub,2013-01-18 05:41:00,
2013-01-18 00:43:00,37.2,34.0,29.99,NNE,14,0.0,1.0,88,0.00,,,0.00,meteohub,2013-01-18 05:43:00,
2013-01-18 00:46:00,37.2,34.0,29.99,NNW,338,1.0,1.0,88,0.00,,,0.00,meteohub,2013-01-18 05:46:00,
2013-01-18 00:48:00,37.2,34.0,30.00,NNW,336,1.0,1.0,88,0.00,,,0.00,meteohub,2013-01-18 05:48:00,
2013-01-18 00:49:00,37.2,34.0,30.00,NNW,330,1.0,1.0,88,0.00,,,0.00,meteohub,2013-01-18 05:49:00,
2013-01-18 00:51:00,37.0,33.8,30.01,NW,306,1.0,2.0,88,0.00,,,0.00,meteohub,2013-01-18 05:51:00,
2013-01-18 00:53:00,37.0,33.8,30.02,WNW,302,1.0,2.0,88,0.00,,,0.00,meteohub,2013-01-18 05:53:00,
2013-01-18 00:54:00,37.0,33.8,30.02,WNW,302,0.0,2.0,88,0.00,,,0.00,meteohub,2013-01-18 05:54:00,
2013-01-18 00:56:00,37.0,33.8,30.01,WNW,303,1.0,2.0,88,0.00,,,0.00,meteohub,2013-01-18 05:56:00,
2013-01-18 00:58:00,37.0,33.8,30.02,WNW,303,1.0,2.0,88,0.00,,,0.00,meteohub,2013-01-18 05:58:00,
2013-01-18 00:59:00,37.0,33.8,30.02,West,279,3.0,3.0,88,0.00,,,0.00,meteohub,2013-01-18 05:59:00,
2013-01-18 01:01:00,37.0,33.8,30.03,WNW,288,2.0,3.0,88,0.00,,,0.00,meteohub,2013-01-18 06:01:00,
2013-01-18 01:03:00,37.0,33.8,30.04,West,278,2.0,3.0,88,0.00,,,0.00,meteohub,2013-01-18 06:03:00,
2013-01-18 01:04:00,37.0,33.6,30.04,West,281,2.0,3.0,87,0.00,,,0.00,meteohub,2013-01-18 06:04:00,
2013-01-18 01:06:00,37.0,33.6,30.04,West,279,2.0,5.0,87,0.00,,,0.00,meteohub,2013-01-18 06:06:00,
2013-01-18 01:08:00,37.0,33.6,30.04,West,281,1.0,5.0,87,0.00,,,0.00,meteohub,2013-01-18 06:08:00,
2013-01-18 01:10:00,37.0,33.6,30.03,West,281,0.0,5.0,87,0.00,,,0.00,meteohub,2013-01-18 06:10:00,
2013-01-18 01:11:00,37.0,33.6,30.03,West,281,2.0,5.0,87,0.00,,,0.00,meteohub,2013-01-18 06:11:00,
2013-01-18 01:13:00,37.0,33.6,30.04,WNW,286,0.0,5.0,87,0.00,,,0.00,meteohub,2013-01-18 06:13:00,
2013-01-18 01:15:00,37.0,33.3,30.04,WNW,294,2.0,5.0,86,0.00,,,0.00,meteohub,2013-01-18 06:15:00,
2013-01-18 01:16:00,37.0,33.3,30.04,WNW,286,2.0,5.0,86,0.00,,,0.00,meteohub,2013-01-18 06:16:00,
2013-01-18 01:17:00,37.0,33.3,30.05,WNW,285,2.0,5.0,86,0.00,,,0.00,meteohub,2013-01-18 06:17:00,
2013-01-18 01:18:00,37.0,33.3,30.05,WNW,287,1.0,5.0,86,0.00,,,0.00,meteohub,2013-01-18 06:18:00,
2013-01-18 01:20:00,37.0,33.3,30.05,WNW,287,1.0,5.0,86,0.00,,,0.00,meteohub,2013-01-18 06:20:00,
2013-01-18 01:21:00,37.0,33.3,30.04,WNW,287,0.0,5.0,86,0.00,,,0.00,meteohub,2013-01-18 06:21:00,
2013-01-18 01:22:00,37.0,33.3,30.04,WNW,287,0.0,5.0,86,0.00,,,0.00,meteohub,2013-01-18 06:22:00,
2013-01-18 01:23:00,37.2,33.4,30.04,WNW,288,1.0,5.0,86,0.00,,,0.00,meteohub,2013-01-18 06:23:00,
2013-01-18 01:25:00,37.0,33.3,30.03,WNW,302,1.0,4.0,86,0.00,,,0.00,meteohub,2013-01-18 06:25:00,
2013-01-18 01:27:00,37.2,33.4,30.03,WNW,302,0.0,4.0,86,0.00,,,0.00,meteohub,2013-01-18 06:27:00,
2013-01-18 01:28:00,37.0,33.3,30.02,WNW,302,0.0,4.0,86,0.00,,,0.00,meteohub,2013-01-18 06:28:00,
2013-01-18 01:29:00,37.0,33.3,30.02,WNW,302,1.0,4.0,86,0.00,,,0.00,meteohub,2013-01-18 06:29:00,
2013-01-18 01:30:00,37.0,33.3,30.01,WNW,302,1.0,4.0,86,0.00,,,0.00,meteohub,2013-01-18 06:30:00,
2013-01-18 01:32:00,37.0,33.3,30.02,WNW,300,0.0,4.0,86,0.00,,,0.00,meteohub,2013-01-18 06:32:00,
2013-01-18 01:33:00,37.0,33.3,30.02,WNW,300,0.0,4.0,86,0.00,,,0.00,meteohub,2013-01-18 06:33:00,
2013-01-18 01:34:00,37.0,33.3,30.02,WNW,298,0.0,4.0,86,0.00,,,0.00,meteohub,2013-01-18 06:34:00,
2013-01-18 01:35:00,37.0,33.3,30.03,WNW,294,1.0,3.0,86,0.00,,,0.00,meteohub,2013-01-18 06:35:00,
2013-01-18 01:37:00,37.0,33.3,30.03,NW,304,0.0,3.0,86,0.00,,,0.00,meteohub,2013-01-18 06:37:00,
2013-01-18 01:38:00,37.0,33.3,30.03,WNW,294,1.0,3.0,86,0.00,,,0.00,meteohub,2013-01-18 06:38:00,
2013-01-18 01:39:00,37.0,33.3,30.03,WNW,294,0.0,3.0,86,0.00,,,0.00,meteohub,2013-01-18 06:39:00,
2013-01-18 01:41:00,37.0,33.3,30.03,WNW,286,0.0,5.0,86,0.00,,,0.00,meteohub,2013-01-18 06:41:00,
2013-01-18 01:43:00,37.0,33.3,30.03,WNW,288,0.0,5.0,86,0.00,,,0.00,meteohub,2013-01-18 06:43:00,
2013-01-18 01:44:00,36.9,33.1,30.02,WNW,288,0.0,5.0,86,0.00,,,0.00,meteohub,2013-01-18 06:44:00,
2013-01-18 01:46:00,36.9,33.1,30.02,WNW,282,0.0,5.0,86,0.00,,,0.00,meteohub,2013-01-18 06:46:00,
2013-01-18 01:48:00,36.9,33.1,30.01,WNW,293,0.0,5.0,86,0.00,,,0.00,meteohub,2013-01-18 06:48:00,
2013-01-18 01:49:00,36.9,33.1,30.01,West,280,0.0,5.0,86,0.00,,,0.00,meteohub,2013-01-18 06:49:00,
2013-01-18 01:50:00,36.9,33.1,30.01,West,266,2.0,5.0,86,0.00,,,0.00,meteohub,2013-01-18 06:50:00,
2013-01-18 01:52:00,36.9,33.1,30.03,WNW,300,1.0,5.0,86,0.00,,,0.00,meteohub,2013-01-18 06:52:00,
2013-01-18 01:53:00,36.9,33.1,30.04,West,278,4.0,5.0,86,0.00,,,0.00,meteohub,2013-01-18 06:53:00,
2013-01-18 01:54:00,36.9,33.1,30.04,WNW,298,5.0,5.0,86,0.00,,,0.00,meteohub,2013-01-18 06:54:00,
2013-01-18 01:55:00,36.9,33.1,30.04,WNW,291,3.0,4.0,86,0.00,,,0.00,meteohub,2013-01-18 06:55:00,
2013-01-18 01:57:00,36.9,33.1,30.05,WNW,283,2.0,4.0,86,0.00,,,0.00,meteohub,2013-01-18 06:57:00,
2013-01-18 01:58:00,36.9,33.1,30.05,West,281,2.0,4.0,86,0.00,,,0.00,meteohub,2013-01-18 06:58:00,
2013-01-18 01:59:00,36.9,33.1,30.05,WNW,296,2.0,4.0,86,0.00,,,0.00,meteohub,2013-01-18 06:59:00,
2013-01-18 02:00:00,36.9,33.1,30.05,NW,304,0.0,5.0,86,0.00,,,0.00,meteohub,2013-01-18 07:00:00,
2013-01-18 02:03:00,36.9,33.1,30.05,WNW,303,1.0,5.0,86,0.00,,,0.00,meteohub,2013-01-18 07:03:00,
2013-01-18 02:04:00,36.9,33.1,30.05,WNW,294,0.0,5.0,86,0.00,,,0.00,meteohub,2013-01-18 07:04:00,
2013-01-18 02:05:00,36.9,33.1,30.05,WNW,286,1.0,5.0,86,0.00,,,0.00,meteohub,2013-01-18 07:05:00,
2013-01-18 02:09:00,36.9,33.4,30.05,West,269,1.0,5.0,87,0.00,,,0.00,meteohub,2013-01-18 07:09:00,
2013-01-18 02:10:00,36.9,33.1,30.05,WNW,293,2.0,5.0,86,0.00,,,0.00,meteohub,2013-01-18 07:10:00,
2013-01-18 02:14:00,36.9,33.1,30.06,West,275,1.0,6.0,86,0.00,,,0.00,meteohub,2013-01-18 07:14:00,
2013-01-18 02:15:00,36.9,33.1,30.05,West,275,0.0,6.0,86,0.00,,,0.00,meteohub,2013-01-18 07:15:00,
2013-01-18 02:19:00,36.7,32.9,30.05,WNW,284,0.0,6.0,86,0.00,,,0.00,meteohub,2013-01-18 07:19:00,
2013-01-18 02:20:00,36.9,33.1,30.05,West,280,3.0,6.0,86,0.00,,,0.00,meteohub,2013-01-18 07:20:00,
2013-01-18 02:21:00,36.9,33.1,30.05,NW,308,0.0,6.0,86,0.00,,,0.00,meteohub,2013-01-18 07:21:00,
2013-01-18 02:24:00,36.7,32.9,30.05,West,268,0.0,6.0,86,0.00,,,0.00,meteohub,2013-01-18 07:24:00,
2013-01-18 02:25:00,36.7,32.9,30.05,NNW,328,0.0,6.0,86,0.00,,,0.00,meteohub,2013-01-18 07:25:00,
2013-01-18 02:26:00,36.7,32.9,30.05,NW,320,0.0,6.0,86,0.00,,,0.00,meteohub,2013-01-18 07:26:00,
2013-01-18 02:29:00,36.7,32.5,30.05,SE,141,0.0,6.0,85,0.00,,,0.00,meteohub,2013-01-18 07:29:00,
2013-01-18 02:30:00,36.9,33.1,30.04,SSE,165,0.0,6.0,86,0.00,,,0.00,meteohub,2013-01-18 07:30:00,
2013-01-18 02:31:00,36.7,32.5,30.04,NNW,342,1.0,4.0,85,0.00,,,0.00,meteohub,2013-01-18 07:31:00,
2013-01-18 02:35:00,36.7,32.5,30.04,NNE,30,2.0,4.0,85,0.00,,,0.00,meteohub,2013-01-18 07:35:00,
2013-01-18 02:36:00,36.7,32.5,30.04,NNE,19,3.0,5.0,85,0.00,,,0.00,meteohub,2013-01-18 07:36:00,
2013-01-18 02:37:00,36.7,32.5,30.04,NE,36,4.0,5.0,85,0.00,,,0.00,meteohub,2013-01-18 07:37:00,
2013-01-18 02:40:00,36.9,32.5,30.05,NW,316,5.0,5.0,84,0.00,,,0.00,meteohub,2013-01-18 07:40:00,
2013-01-18 02:41:00,36.9,32.5,30.04,NW,319,1.0,6.0,84,0.00,,,0.00,meteohub,2013-01-18 07:41:00,
2013-01-18 02:42:00,36.9,32.5,30.04,NW,304,0.0,6.0,84,0.00,,,0.00,meteohub,2013-01-18 07:42:00,
2013-01-18 02:45:00,36.9,32.5,30.04,NW,320,1.0,8.0,84,0.00,,,0.00,meteohub,2013-01-18 07:45:00,
2013-01-18 02:46:00,36.9,32.2,30.04,NW,319,1.0,8.0,83,0.00,,,0.00,meteohub,2013-01-18 07:46:00,
2013-01-18 02:47:00,36.9,32.2,30.04,NW,319,0.0,8.0,83,0.00,,,0.00,meteohub,2013-01-18 07:47:00,
2013-01-18 02:50:00,37.0,32.4,30.05,NW,322,1.0,8.0,83,0.00,,,0.00,meteohub,2013-01-18 07:50:00,
2013-01-18 02:52:00,37.0,32.4,30.05,NNW,344,1.0,8.0,83,0.00,,,0.00,meteohub,2013-01-18 07:52:00,
2013-01-18 02:55:00,37.0,32.4,30.05,ENE,62,3.0,6.0,83,0.00,,,0.00,meteohub,2013-01-18 07:55:00,
2013-01-18 02:56:00,37.0,32.4,30.05,NE,56,3.0,6.0,83,0.00,,,0.00,meteohub,2013-01-18 07:56:00,
2013-01-18 02:57:00,37.0,32.4,30.06,West,263,1.0,6.0,83,0.00,,,0.00,meteohub,2013-01-18 07:57:00,
2013-01-18 03:00:00,37.0,32.4,30.06,West,274,0.0,6.0,83,0.00,,,0.00,meteohub,2013-01-18 08:00:00,
2013-01-18 03:02:00,37.0,32.4,30.06,WNW,293,3.0,6.0,83,0.00,,,0.00,meteohub,2013-01-18 08:02:00,
2013-01-18 03:03:00,37.0,32.4,30.06,WNW,300,1.0,6.0,83,0.00,,,0.00,meteohub,2013-01-18 08:03:00,
2013-01-18 03:06:00,37.0,32.4,30.06,NNW,345,0.0,5.0,83,0.00,,,0.00,meteohub,2013-01-18 08:06:00,
2013-01-18 03:07:00,37.0,32.4,30.06,NNW,345,0.0,5.0,83,0.00,,,0.00,meteohub,2013-01-18 08:07:00,
2013-01-18 03:09:00,37.0,32.4,30.05,West,261,2.0,5.0,83,0.00,,,0.00,meteohub,2013-01-18 08:09:00,
2013-01-18 03:11:00,36.9,32.2,30.05,West,281,1.0,5.0,83,0.00,,,0.00,meteohub,2013-01-18 08:11:00,
2013-01-18 03:12:00,36.9,32.2,30.05,West,273,2.0,5.0,83,0.00,,,0.00,meteohub,2013-01-18 08:12:00,
2013-01-18 03:14:00,36.9,32.2,30.04,WNW,284,0.0,5.0,83,0.00,,,0.00,meteohub,2013-01-18 08:14:00,
2013-01-18 03:16:00,36.9,32.2,30.05,WNW,292,0.0,4.0,83,0.00,,,0.00,meteohub,2013-01-18 08:16:00,
2013-01-18 03:17:00,36.9,32.2,30.05,WSW,249,1.0,4.0,83,0.00,,,0.00,meteohub,2013-01-18 08:17:00,
2013-01-18 03:18:00,36.9,32.2,30.05,WSW,250,2.0,4.0,83,0.00,,,0.00,meteohub,2013-01-18 08:18:00,
2013-01-18 03:19:00,36.9,32.2,30.05,West,261,0.0,4.0,83,0.00,,,0.00,meteohub,2013-01-18 08:19:00,
2013-01-18 03:21:00,36.9,32.2,30.05,WNW,294,2.0,3.0,83,0.00,,,0.00,meteohub,2013-01-18 08:21:00,
2013-01-18 03:23:00,36.7,32.0,30.05,WNW,291,0.0,3.0,83,0.00,,,0.00,meteohub,2013-01-18 08:23:00,
2013-01-18 03:24:00,36.7,32.0,30.06,SW,236,1.0,3.0,83,0.00,,,0.00,meteohub,2013-01-18 08:24:00,
2013-01-18 03:27:00,36.7,32.0,30.06,West,262,3.0,6.0,83,0.00,,,0.00,meteohub,2013-01-18 08:27:00,
2013-01-18 03:28:00,36.7,32.0,30.06,West,261,3.0,6.0,83,0.00,,,0.00,meteohub,2013-01-18 08:28:00,
2013-01-18 03:30:00,36.7,32.0,30.06,WNW,290,1.0,6.0,83,0.00,,,0.00,meteohub,2013-01-18 08:30:00,
2013-01-18 03:32:00,36.7,32.0,30.06,NW,323,2.0,6.0,83,0.00,,,0.00,meteohub,2013-01-18 08:32:00,
2013-01-18 03:33:00,36.5,31.8,30.06,WNW,292,4.0,6.0,83,0.00,,,0.00,meteohub,2013-01-18 08:33:00,
2013-01-18 03:34:00,36.5,31.5,30.06,West,275,4.0,6.0,82,0.00,,,0.00,meteohub,2013-01-18 08:34:00,
2013-01-18 03:35:00,36.3,31.3,30.06,West,277,2.0,5.0,82,0.00,,,0.00,meteohub,2013-01-18 08:35:00,
2013-01-18 03:37:00,36.3,31.3,30.06,WSW,242,2.0,5.0,82,0.00,,,0.00,meteohub,2013-01-18 08:37:00,
2013-01-18 03:38:00,36.3,31.3,30.06,West,270,2.0,5.0,82,0.00,,,0.00,meteohub,2013-01-18 08:38:00,
2013-01-18 03:39:00,36.3,31.3,30.06,North,355,2.0,5.0,82,0.00,,,0.00,meteohub,2013-01-18 08:39:00,
2013-01-18 03:40:00,36.3,31.3,30.06,WSW,238,2.0,6.0,82,0.00,,,0.00,meteohub,2013-01-18 08:40:00,
2013-01-18 03:42:00,36.1,31.1,30.06,West,267,1.0,6.0,82,0.00,,,0.00,meteohub,2013-01-18 08:42:00,
2013-01-18 03:44:00,36.1,31.1,30.06,West,278,5.0,6.0,82,0.00,,,0.00,meteohub,2013-01-18 08:44:00,
2013-01-18 03:45:00,36.1,31.1,30.06,NE,47,2.0,6.0,82,0.00,,,0.00,meteohub,2013-01-18 08:45:00,
2013-01-18 03:47:00,36.1,31.1,30.06,WNW,296,3.0,6.0,82,0.00,,,0.00,meteohub,2013-01-18 08:47:00,
2013-01-18 03:49:00,36.1,31.1,30.06,West,281,3.0,6.0,82,0.00,,,0.00,meteohub,2013-01-18 08:49:00,
2013-01-18 03:51:00,36.1,31.1,30.07,West,280,3.0,7.0,82,0.00,,,0.00,meteohub,2013-01-18 08:51:00,
2013-01-18 03:52:00,36.3,31.3,30.07,West,263,4.0,7.0,82,0.00,,,0.00,meteohub,2013-01-18 08:52:00,
2013-01-18 03:54:00,36.3,31.3,30.07,West,281,3.0,7.0,82,0.00,,,0.00,meteohub,2013-01-18 08:54:00,
2013-01-18 03:56:00,36.1,31.1,30.07,West,281,2.0,7.0,82,0.00,,,0.00,meteohub,2013-01-18 08:56:00,
2013-01-18 03:58:00,36.1,31.1,30.07,West,266,2.0,7.0,82,0.00,,,0.00,meteohub,2013-01-18 08:58:00,
2013-01-18 03:59:00,36.1,31.1,30.07,West,277,2.0,7.0,82,0.00,,,0.00,meteohub,2013-01-18 08:59:00,
2013-01-18 04:02:00,36.1,31.1,30.07,West,267,3.0,6.0,82,0.00,,,0.00,meteohub,2013-01-18 09:02:00,
2013-01-18 04:03:00,36.1,31.1,30.07,WNW,302,3.0,6.0,82,0.00,,,0.00,meteohub,2013-01-18 09:03:00,
2013-01-18 04:05:00,36.1,31.1,30.07,WNW,296,4.0,6.0,82,0.00,,,0.00,meteohub,2013-01-18 09:05:00,
2013-01-18 04:07:00,36.1,31.1,30.07,West,277,8.0,8.0,82,0.00,,,0.00,meteohub,2013-01-18 09:07:00,
2013-01-18 04:08:00,36.1,31.1,30.07,WNW,287,4.0,6.0,82,0.00,,,0.00,meteohub,2013-01-18 09:08:00,
2013-01-18 04:10:00,36.0,30.9,30.07,West,268,1.0,6.0,82,0.00,,,0.00,meteohub,2013-01-18 09:10:00,
2013-01-18 04:13:00,36.1,31.1,30.07,WNW,284,2.0,8.0,82,0.00,,,0.00,meteohub,2013-01-18 09:13:00,
2013-01-18 04:15:00,36.0,30.9,30.07,WNW,288,3.0,8.0,82,0.00,,,0.00,meteohub,2013-01-18 09:15:00,
2013-01-18 04:18:00,36.0,30.9,30.08,West,277,3.0,8.0,82,0.00,,,0.00,meteohub,2013-01-18 09:18:00,
2013-01-18 04:20:00,36.0,30.7,30.08,West,277,3.0,8.0,81,0.00,,,0.00,meteohub,2013-01-18 09:20:00,
2013-01-18 04:23:00,35.8,30.6,30.08,West,269,3.0,8.0,81,0.00,,,0.00,meteohub,2013-01-18 09:23:00,
2013-01-18 04:25:00,35.6,30.4,30.08,West,281,2.0,7.0,81,0.00,,,0.00,meteohub,2013-01-18 09:25:00,
2013-01-18 04:28:00,35.6,30.4,30.08,WNW,293,3.0,7.0,81,0.00,,,0.00,meteohub,2013-01-18 09:28:00,
2013-01-18 04:29:00,35.6,30.4,30.08,WNW,287,0.0,7.0,81,0.00,,,0.00,meteohub,2013-01-18 09:29:00,
2013-01-18 04:30:00,35.6,30.4,30.08,WNW,283,1.0,7.0,81,0.00,,,0.00,meteohub,2013-01-18 09:30:00,
2013-01-18 04:31:00,35.6,30.4,30.09,WNW,288,3.0,7.0,81,0.00,,,0.00,meteohub,2013-01-18 09:31:00,
2013-01-18 04:33:00,35.4,30.6,30.09,WNW,287,3.0,7.0,82,0.00,,,0.00,meteohub,2013-01-18 09:33:00,
2013-01-18 04:35:00,35.4,30.6,30.09,WNW,287,4.0,7.0,82,0.00,,,0.00,meteohub,2013-01-18 09:35:00,
2013-01-18 04:36:00,35.4,30.6,30.09,West,276,5.0,7.0,82,0.00,,,0.00,meteohub,2013-01-18 09:36:00,
2013-01-18 04:39:00,35.4,30.6,30.09,NE,36,2.0,7.0,82,0.00,,,0.00,meteohub,2013-01-18 09:39:00,
2013-01-18 04:40:00,35.4,30.6,30.09,NW,317,5.0,7.0,82,0.00,,,0.00,meteohub,2013-01-18 09:40:00,
2013-01-18 04:41:00,35.4,30.6,30.09,WNW,298,1.0,7.0,82,0.00,,,0.00,meteohub,2013-01-18 09:41:00,
2013-01-18 04:42:00,35.4,30.6,30.09,West,281,4.0,7.0,82,0.00,,,0.00,meteohub,2013-01-18 09:42:00,
2013-01-18 04:44:00,35.4,30.6,30.09,WNW,288,3.0,7.0,82,0.00,,,0.00,meteohub,2013-01-18 09:44:00,
2013-01-18 04:45:00,35.4,30.6,30.09,West,279,1.0,7.0,82,0.00,,,0.00,meteohub,2013-01-18 09:45:00,
2013-01-18 04:46:00,35.4,30.6,30.10,WNW,302,4.0,7.0,82,0.00,,,0.00,meteohub,2013-01-18 09:46:00,
2013-01-18 04:47:00,35.4,30.6,30.09,WNW,285,2.0,7.0,82,0.00,,,0.00,meteohub,2013-01-18 09:47:00,
2013-01-18 04:49:00,35.4,30.6,30.09,West,280,2.0,7.0,82,0.00,,,0.00,meteohub,2013-01-18 09:49:00,
2013-01-18 04:50:00,35.4,30.6,30.09,NW,317,0.0,7.0,82,0.00,,,0.00,meteohub,2013-01-18 09:50:00,
2013-01-18 04:51:00,35.4,30.6,30.09,WNW,292,1.0,7.0,82,0.00,,,0.00,meteohub,2013-01-18 09:51:00,
2013-01-18 04:52:00,35.4,30.6,30.09,WNW,284,2.0,7.0,82,0.00,,,0.00,meteohub,2013-01-18 09:52:00,
2013-01-18 04:55:00,35.4,30.6,30.10,WNW,301,2.0,7.0,82,0.00,,,0.00,meteohub,2013-01-18 09:55:00,
2013-01-18 04:56:00,35.4,30.6,30.10,West,266,1.0,7.0,82,0.00,,,0.00,meteohub,2013-01-18 09:56:00,
2013-01-18 04:57:00,35.4,30.6,30.10,SW,234,0.0,7.0,82,0.00,,,0.00,meteohub,2013-01-18 09:57:00,
2013-01-18 05:00:00,35.4,30.6,30.10,West,261,1.0,7.0,82,0.00,,,0.00,meteohub,2013-01-18 10:00:00,
2013-01-18 05:01:00,35.4,30.6,30.10,West,266,1.0,6.0,82,0.00,,,0.00,meteohub,2013-01-18 10:01:00,
2013-01-18 05:02:00,35.2,30.4,30.11,WSW,241,1.0,6.0,82,0.00,,,0.00,meteohub,2013-01-18 10:02:00,
2013-01-18 05:05:00,35.2,30.4,30.11,SW,229,2.0,6.0,82,0.00,,,0.00,meteohub,2013-01-18 10:05:00,
2013-01-18 05:06:00,35.2,30.4,30.11,SW,214,2.0,5.0,82,0.00,,,0.00,meteohub,2013-01-18 10:06:00,
2013-01-18 05:07:00,35.2,30.4,30.11,South,171,1.0,5.0,82,0.00,,,0.00,meteohub,2013-01-18 10:07:00,
2013-01-18 05:10:00,35.2,30.4,30.12,WNW,292,6.0,6.0,82,0.00,,,0.00,meteohub,2013-01-18 10:10:00,
2013-01-18 05:11:00,35.2,30.4,30.12,NNW,332,5.0,11.0,82,0.00,,,0.00,meteohub,2013-01-18 10:11:00,
2013-01-18 05:12:00,35.2,30.4,30.12,NNW,333,5.0,11.0,82,0.00,,,0.00,meteohub,2013-01-18 10:12:00,
2013-01-18 05:15:00,35.2,30.4,30.12,West,260,7.0,11.0,82,0.00,,,0.00,meteohub,2013-01-18 10:15:00,
2013-01-18 05:17:00,35.2,30.4,30.11,NNE,29,8.0,14.0,82,0.00,,,0.00,meteohub,2013-01-18 10:17:00,
2013-01-18 05:20:00,35.1,30.2,30.12,North,355,3.0,14.0,82,0.00,,,0.00,meteohub,2013-01-18 10:20:00,
2013-01-18 05:22:00,34.9,30.2,30.12,NNE,17,2.0,14.0,83,0.00,,,0.00,meteohub,2013-01-18 10:22:00,
2013-01-18 05:25:00,34.7,30.0,30.13,SSW,205,2.0,14.0,83,0.00,,,0.00,meteohub,2013-01-18 10:25:00,
2013-01-18 05:27:00,34.7,30.4,30.13,WSW,246,1.0,14.0,84,0.00,,,0.00,meteohub,2013-01-18 10:27:00,
2013-01-18 05:28:00,34.7,30.4,30.13,NNE,28,3.0,14.0,84,0.00,,,0.00,meteohub,2013-01-18 10:28:00,
2013-01-18 05:30:00,34.5,30.2,30.14,WNW,290,0.0,14.0,84,0.00,,,0.00,meteohub,2013-01-18 10:30:00,
2013-01-18 05:32:00,34.5,30.6,30.14,NNW,330,5.0,11.0,85,0.00,,,0.00,meteohub,2013-01-18 10:32:00,
2013-01-18 05:33:00,34.5,30.6,30.14,North,0,8.0,11.0,85,0.00,,,0.00,meteohub,2013-01-18 10:33:00,
2013-01-18 05:36:00,34.3,30.4,30.14,SSW,194,1.0,9.0,85,0.00,,,0.00,meteohub,2013-01-18 10:36:00,
2013-01-18 05:38:00,34.3,30.4,30.14,NNE,16,2.0,9.0,85,0.00,,,0.00,meteohub,2013-01-18 10:38:00,
2013-01-18 05:41:00,34.2,30.2,30.15,West,259,0.0,9.0,85,0.00,,,0.00,meteohub,2013-01-18 10:41:00,
2013-01-18 05:43:00,34.2,30.2,30.15,ENE,66,3.0,9.0,85,0.00,,,0.00,meteohub,2013-01-18 10:43:00,
2013-01-18 05:46:00,34.0,30.0,30.16,NW,318,1.0,9.0,85,0.00,,,0.00,meteohub,2013-01-18 10:46:00,
2013-01-18 05:48:00,34.2,30.2,30.16,SSW,202,1.0,9.0,85,0.00,,,0.00,meteohub,2013-01-18 10:48:00,
2013-01-18 05:49:00,34.0,30.2,30.16,North,5,3.0,9.0,86,0.00,,,0.00,meteohub,2013-01-18 10:49:00,
2013-01-18 05:51:00,34.0,30.0,30.16,NNE,15,2.0,6.0,85,0.00,,,0.00,meteohub,2013-01-18 10:51:00,
2013-01-18 05:53:00,34.0,30.2,30.16,NNE,28,0.0,6.0,86,0.00,,,0.00,meteohub,2013-01-18 10:53:00,
2013-01-18 05:54:00,34.0,30.2,30.15,NNE,26,4.0,6.0,86,0.00,,,0.00,meteohub,2013-01-18 10:54:00,
2013-01-18 05:57:00,34.0,30.2,30.16,NNE,24,3.0,6.0,86,0.00,,,0.00,meteohub,2013-01-18 10:57:00,
2013-01-18 05:58:00,34.0,30.2,30.16,North,11,4.0,6.0,86,0.00,,,0.00,meteohub,2013-01-18 10:58:00,
2013-01-18 05:59:00,34.0,30.2,30.16,NNE,24,3.0,6.0,86,0.00,,,0.00,meteohub,2013-01-18 10:59:00,
2013-01-18 06:02:00,34.0,30.2,30.16,NNW,329,1.0,6.0,86,0.00,,,0.00,meteohub,2013-01-18 11:02:00,
2013-01-18 06:03:00,34.0,30.2,30.16,NNE,24,4.0,6.0,86,0.00,,,0.00,meteohub,2013-01-18 11:03:00,
2013-01-18 06:04:00,34.0,30.2,30.16,NE,38,3.0,6.0,86,0.00,,,0.00,meteohub,2013-01-18 11:04:00,
2013-01-18 06:07:00,34.2,30.4,30.16,NNE,30,3.0,9.0,86,0.00,,,0.00,meteohub,2013-01-18 11:07:00,
2013-01-18 06:08:00,34.2,30.4,30.16,North,9,2.0,9.0,86,0.00,,,0.00,meteohub,2013-01-18 11:08:00,
2013-01-18 06:09:00,34.2,30.4,30.17,North,0,5.0,9.0,86,0.00,,,0.00,meteohub,2013-01-18 11:09:00,
2013-01-18 06:10:00,34.2,30.4,30.17,NNE,16,8.0,9.0,86,0.00,,,0.00,meteohub,2013-01-18 11:10:00,
2013-01-18 06:12:00,34.2,30.4,30.17,NNE,31,7.0,9.0,86,0.00,,,0.00,meteohub,2013-01-18 11:12:00,
2013-01-18 06:14:00,34.2,30.4,30.17,NNE,20,6.0,9.0,86,0.00,,,0.00,meteohub,2013-01-18 11:14:00,
2013-01-18 06:15:00,34.2,30.4,30.17,NE,36,5.0,9.0,86,0.00,,,0.00,meteohub,2013-01-18 11:15:00,
2013-01-18 06:17:00,34.2,30.2,30.17,NE,35,6.0,10.0,85,0.00,,,0.00,meteohub,2013-01-18 11:17:00,
2013-01-18 06:19:00,34.2,30.2,30.17,NNE,33,7.0,10.0,85,0.00,,,0.00,meteohub,2013-01-18 11:19:00,
2013-01-18 06:20:00,34.2,30.2,30.17,NNE,24,3.0,10.0,85,0.00,,,0.00,meteohub,2013-01-18 11:20:00,
2013-01-18 06:22:00,34.2,30.2,30.17,North,9,5.0,11.0,85,0.00,,,0.00,meteohub,2013-01-18 11:22:00,
2013-01-18 06:24:00,34.0,29.7,30.17,NE,44,10.0,11.0,84,0.00,,,0.00,meteohub,2013-01-18 11:24:00,
2013-01-18 06:25:00,34.0,29.7,30.18,NE,41,7.0,11.0,84,0.00,,,0.00,meteohub,2013-01-18 11:25:00,
2013-01-18 06:27:00,34.0,29.7,30.18,NNE,32,4.0,11.0,84,0.00,,,0.00,meteohub,2013-01-18 11:27:00,
2013-01-18 06:29:00,34.0,29.7,30.18,NNE,17,3.0,11.0,84,0.00,,,0.00,meteohub,2013-01-18 11:29:00,
2013-01-18 06:30:00,34.0,29.7,30.18,NNE,22,2.0,11.0,84,0.00,,,0.00,meteohub,2013-01-18 11:30:00,
2013-01-18 06:33:00,34.2,29.8,30.18,NNE,26,5.0,11.0,84,0.00,,,0.00,meteohub,2013-01-18 11:33:00,
2013-01-18 06:34:00,34.0,29.3,30.18,NNE,17,9.0,11.0,83,0.00,,,0.00,meteohub,2013-01-18 11:34:00,
2013-01-18 06:35:00,34.0,29.3,30.18,North,5,6.0,11.0,83,0.00,,,0.00,meteohub,2013-01-18 11:35:00,
2013-01-18 06:38:00,34.2,29.5,30.19,NE,42,4.0,11.0,83,0.00,,,0.00,meteohub,2013-01-18 11:38:00,
2013-01-18 06:40:00,34.2,29.5,30.19,NE,46,5.0,11.0,83,0.00,,,0.00,meteohub,2013-01-18 11:40:00,
2013-01-18 06:43:00,34.3,29.7,30.19,NNE,13,10.0,10.0,83,0.00,,,0.00,meteohub,2013-01-18 11:43:00,
2013-01-18 06:45:00,34.3,29.7,30.19,NNE,12,11.0,11.0,83,0.00,,,0.00,meteohub,2013-01-18 11:45:00,
2013-01-18 06:48:00,34.3,29.5,30.20,NNE,13,10.0,15.0,82,0.00,,,0.00,meteohub,2013-01-18 11:48:00,
2013-01-18 06:50:00,34.3,29.5,30.20,NE,35,6.0,15.0,82,0.01,,,0.01,meteohub,2013-01-18 11:50:00,
2013-01-18 06:51:00,34.3,29.5,30.20,NNE,24,7.0,15.0,82,0.01,,,0.01,meteohub,2013-01-18 11:51:00,
2013-01-18 06:53:00,34.2,28.9,30.20,NNE,14,5.0,15.0,81,0.01,,,0.01,meteohub,2013-01-18 11:53:00,
2013-01-18 06:55:00,34.0,28.4,30.21,NW,324,4.0,15.0,80,0.01,,,0.01,meteohub,2013-01-18 11:55:00,
2013-01-18 06:56:00,34.0,28.4,30.21,NNE,19,2.0,15.0,80,0.01,,,0.01,meteohub,2013-01-18 11:56:00,
2013-01-18 06:59:00,34.0,28.2,30.21,North,5,4.0,15.0,79,0.01,,,0.01,meteohub,2013-01-18 11:59:00,
2013-01-18 07:01:00,34.0,28.2,30.21,NW,322,7.0,12.0,79,0.01,,,0.01,meteohub,2013-01-18 12:01:00,
2013-01-18 07:05:00,34.0,27.9,30.22,NE,51,3.0,12.0,78,0.01,,,0.01,meteohub,2013-01-18 12:05:00,
2013-01-18 07:06:00,34.0,27.9,30.22,NNW,331,3.0,13.0,78,0.01,,,0.01,meteohub,2013-01-18 12:06:00,
2013-01-18 07:07:00,34.0,27.5,30.22,NNE,28,11.0,13.0,77,0.01,,,0.01,meteohub,2013-01-18 12:07:00,
2013-01-18 07:10:00,34.0,27.5,30.23,NNE,21,7.0,13.0,77,0.01,,,0.01,meteohub,2013-01-18 12:10:00,
2013-01-18 07:11:00,34.0,27.5,30.23,NNE,25,3.0,13.0,77,0.01,,,0.01,meteohub,2013-01-18 12:11:00,
2013-01-18 07:12:00,34.0,27.5,30.23,North,355,2.0,13.0,77,0.01,,,0.01,meteohub,2013-01-18 12:12:00,
2013-01-18 07:13:00,34.0,27.5,30.23,NNE,32,4.0,13.0,77,0.01,,,0.01,meteohub,2013-01-18 12:13:00,
2013-01-18 07:15:00,34.0,27.5,30.24,NNE,25,7.0,15.0,77,0.01,,,0.01,meteohub,2013-01-18 12:15:00,
2013-01-18 07:17:00,34.0,27.5,30.24,ENE,76,1.0,15.0,77,0.01,,,0.01,meteohub,2013-01-18 12:17:00,
2013-01-18 07:18:00,33.8,27.3,30.24,NE,40,4.0,15.0,77,0.01,,,0.01,meteohub,2013-01-18 12:18:00,
2013-01-18 07:20:00,33.6,27.1,30.24,North,5,11.0,16.0,77,0.01,,,0.01,meteohub,2013-01-18 12:20:00,
2013-01-18 07:22:00,33.6,27.1,30.24,WNW,300,3.0,16.0,77,0.01,,,0.01,meteohub,2013-01-18 12:22:00,
2013-01-18 07:23:00,33.6,27.1,30.24,NNE,23,8.0,16.0,77,0.01,,,0.01,meteohub,2013-01-18 12:23:00,
2013-01-18 07:25:00,33.4,27.0,30.24,ENE,76,4.0,16.0,77,0.01,,,0.01,meteohub,2013-01-18 12:25:00,
2013-01-18 07:27:00,33.4,27.0,30.25,WNW,296,1.0,16.0,77,0.01,,,0.01,meteohub,2013-01-18 12:27:00,
2013-01-18 07:28:00,33.4,27.0,30.25,NE,51,2.0,16.0,77,0.01,,,0.01,meteohub,2013-01-18 12:28:00,
2013-01-18 07:29:00,33.4,27.0,30.25,NE,47,1.0,16.0,77,0.01,,,0.01,meteohub,2013-01-18 12:29:00,
2013-01-18 07:30:00,33.4,27.3,30.25,North,5,5.0,16.0,78,0.01,,,0.01,meteohub,2013-01-18 12:30:00,
2013-01-18 07:32:00,33.4,27.0,30.25,SW,236,2.0,16.0,77,0.01,,,0.01,meteohub,2013-01-18 12:32:00,
2013-01-18 07:33:00,33.3,26.8,30.25,NNW,334,3.0,16.0,77,0.01,,,0.01,meteohub,2013-01-18 12:33:00,
2013-01-18 07:34:00,33.3,26.8,30.25,NNE,13,3.0,16.0,77,0.01,,,0.01,meteohub,2013-01-18 12:34:00,
2013-01-18 07:35:00,33.3,26.8,30.25,North,350,8.0,13.0,77,0.01,,,0.01,meteohub,2013-01-18 12:35:00,
2013-01-18 07:37:00,33.3,26.8,30.26,NE,49,7.0,13.0,77,0.01,,,0.01,meteohub,2013-01-18 12:37:00,
2013-01-18 07:39:00,33.3,26.8,30.26,NNE,16,5.0,13.0,77,0.01,,,0.01,meteohub,2013-01-18 12:39:00,
2013-01-18 07:40:00,33.3,26.6,30.26,NNE,28,6.0,13.0,76,0.01,,,0.01,meteohub,2013-01-18 12:40:00,
2013-01-18 07:42:00,33.1,26.4,30.26,NNE,24,2.0,10.0,76,0.01,,,0.01,meteohub,2013-01-18 12:42:00,
2013-01-18 07:44:00,33.1,26.4,30.26,NE,37,4.0,10.0,76,0.01,,,0.01,meteohub,2013-01-18 12:44:00,
2013-01-18 07:45:00,33.1,26.4,30.27,NNE,28,1.0,10.0,76,0.00,,,0.01,meteohub,2013-01-18 12:45:00,
2013-01-18 07:47:00,33.1,26.4,30.27,North,5,10.0,12.0,76,0.00,,,0.01,meteohub,2013-01-18 12:47:00,
2013-01-18 07:49:00,33.1,26.4,30.27,NNE,24,4.0,12.0,76,0.00,,,0.01,meteohub,2013-01-18 12:49:00,
2013-01-18 07:50:00,33.1,26.4,30.27,NNW,331,4.0,12.0,76,0.00,,,0.01,meteohub,2013-01-18 12:50:00,
2013-01-18 07:51:00,33.1,26.4,30.27,NNE,12,5.0,12.0,76,0.00,,,0.01,meteohub,2013-01-18 12:51:00,
2013-01-18 07:53:00,32.9,26.2,30.27,NNW,344,2.0,12.0,76,0.00,,,0.01,meteohub,2013-01-18 12:53:00,
2013-01-18 07:54:00,32.9,26.2,30.27,NW,325,7.0,12.0,76,0.00,,,0.01,meteohub,2013-01-18 12:54:00,
2013-01-18 07:55:00,32.9,26.2,30.28,NNW,337,3.0,12.0,76,0.00,,,0.01,meteohub,2013-01-18 12:55:00,
2013-01-18 07:56:00,32.9,26.2,30.28,WSW,254,3.0,12.0,76,0.00,,,0.01,meteohub,2013-01-18 12:56:00,
2013-01-18 07:58:00,32.9,26.2,30.28,NNW,331,3.0,12.0,76,0.00,,,0.01,meteohub,2013-01-18 12:58:00,
2013-01-18 07:59:00,32.7,26.1,30.28,NE,39,4.0,12.0,76,0.00,,,0.01,meteohub,2013-01-18 12:59:00,
2013-01-18 08:00:00,32.7,26.1,30.28,NNW,344,9.0,11.0,76,0.00,,,0.01,meteohub,2013-01-18 13:00:00,
2013-01-18 08:01:00,32.7,26.1,30.28,NNE,31,5.0,11.0,76,0.00,,,0.01,meteohub,2013-01-18 13:01:00,
2013-01-18 08:03:00,32.7,26.1,30.29,NNE,22,5.0,11.0,76,0.00,,,0.01,meteohub,2013-01-18 13:03:00,
2013-01-18 08:04:00,32.7,26.1,30.29,NE,51,6.0,11.0,76,0.00,,,0.01,meteohub,2013-01-18 13:04:00,
2013-01-18 08:05:00,32.7,26.1,30.29,North,0,4.0,13.0,76,0.00,,,0.01,meteohub,2013-01-18 13:05:00,
2013-01-18 08:06:00,32.5,25.5,30.29,NNE,22,7.0,13.0,75,0.00,,,0.01,meteohub,2013-01-18 13:06:00,
2013-01-18 08:09:00,32.5,25.5,30.29,NW,315,1.0,13.0,75,0.00,,,0.01,meteohub,2013-01-18 13:09:00,
2013-01-18 08:10:00,32.5,25.5,30.30,NW,323,4.0,13.0,75,0.00,,,0.01,meteohub,2013-01-18 13:10:00,
2013-01-18 08:11:00,32.5,25.5,30.29,NNE,19,5.0,13.0,75,0.00,,,0.01,meteohub,2013-01-18 13:11:00,
2013-01-18 08:14:00,32.4,25.3,30.30,NNE,32,14.0,14.0,75,0.00,,,0.01,meteohub,2013-01-18 13:14:00,
2013-01-18 08:15:00,32.4,25.0,30.30,North,355,7.0,14.0,74,0.00,,,0.01,meteohub,2013-01-18 13:15:00,
2013-01-18 08:17:00,32.4,25.0,30.30,North,355,7.0,14.0,74,0.00,,,0.01,meteohub,2013-01-18 13:17:00,
2013-01-18 08:19:00,32.4,25.0,30.30,NE,42,6.0,14.0,74,0.00,,,0.01,meteohub,2013-01-18 13:19:00,
2013-01-18 08:20:00,32.4,25.3,30.30,South,171,4.0,14.0,75,0.00,,,0.01,meteohub,2013-01-18 13:20:00,
2013-01-18 08:22:00,32.4,25.3,30.30,NNE,22,1.0,14.0,75,0.00,,,0.01,meteohub,2013-01-18 13:22:00,
2013-01-18 08:25:00,32.4,25.7,30.31,North,350,7.0,14.0,76,0.00,,,0.01,meteohub,2013-01-18 13:25:00,
2013-01-18 08:26:00,32.4,25.7,30.31,NW,315,5.0,15.0,76,0.00,,,0.01,meteohub,2013-01-18 13:26:00,
2013-01-18 08:27:00,32.4,25.7,30.31,NE,36,10.0,15.0,76,0.00,,,0.01,meteohub,2013-01-18 13:27:00,
2013-01-18 08:30:00,32.2,25.5,30.31,NW,313,3.0,15.0,76,0.00,,,0.01,meteohub,2013-01-18 13:30:00,
2013-01-18 08:32:00,32.0,25.3,30.31,NE,49,5.0,15.0,76,0.00,,,0.01,meteohub,2013-01-18 13:32:00,
2013-01-18 08:33:00,32.2,25.5,30.32,South,184,2.0,15.0,76,0.00,,,0.01,meteohub,2013-01-18 13:33:00,
2013-01-18 08:35:00,32.2,25.5,30.32,North,0,6.0,15.0,76,0.00,,,0.01,meteohub,2013-01-18 13:35:00,
2013-01-18 08:37:00,32.2,25.2,30.32,NNE,30,4.0,15.0,75,0.00,,,0.01,meteohub,2013-01-18 13:37:00,
2013-01-18 08:38:00,32.2,25.2,30.32,NE,42,9.0,15.0,75,0.00,,,0.01,meteohub,2013-01-18 13:38:00,
2013-01-18 08:40:00,32.2,24.8,30.33,ENE,58,7.0,15.0,74,0.00,,,0.01,meteohub,2013-01-18 13:40:00,
2013-01-18 08:41:00,32.2,24.8,30.32,East,85,3.0,15.0,74,0.00,,,0.01,meteohub,2013-01-18 13:41:00,
2013-01-18 08:42:00,32.2,24.8,30.33,WSW,253,4.0,15.0,74,0.00,,,0.01,meteohub,2013-01-18 13:42:00,
2013-01-18 08:43:00,32.2,24.4,30.33,WNW,283,6.0,15.0,73,0.00,,,0.01,meteohub,2013-01-18 13:43:00,
2013-01-18 08:46:00,32.2,24.4,30.33,NW,305,5.0,15.0,73,0.00,,,0.01,meteohub,2013-01-18 13:46:00,
2013-01-18 08:47:00,32.2,24.3,30.34,NNW,330,7.0,15.0,72,0.00,,,0.01,meteohub,2013-01-18 13:47:00,
2013-01-18 08:48:00,32.4,24.1,30.34,WSW,253,6.0,15.0,71,0.00,,,0.01,meteohub,2013-01-18 13:48:00,
2013-01-18 08:51:00,32.4,23.7,30.34,WNW,291,3.0,14.0,70,0.00,,,0.01,meteohub,2013-01-18 13:51:00,
2013-01-18 08:53:00,32.4,23.0,30.35,WNW,282,6.0,14.0,68,0.00,,,0.01,meteohub,2013-01-18 13:53:00,
2013-01-18 08:56:00,32.4,21.6,30.35,WNW,286,7.0,17.0,64,0.00,,,0.01,meteohub,2013-01-18 13:56:00,
2013-01-18 08:58:00,32.4,21.2,30.35,West,270,10.0,17.0,63,0.00,,,0.01,meteohub,2013-01-18 13:58:00,
2013-01-18 09:01:00,32.4,19.9,30.35,West,281,5.0,17.0,60,0.00,,,0.01,meteohub,2013-01-18 14:01:00,
2013-01-18 09:03:00,32.4,20.5,30.35,South,185,2.0,17.0,61,0.00,,,0.01,meteohub,2013-01-18 14:03:00,
2013-01-18 09:04:00,32.4,20.5,30.36,West,266,5.0,17.0,61,0.00,,,0.01,meteohub,2013-01-18 14:04:00,
2013-01-18 09:06:00,32.4,19.9,30.36,ESE,123,4.0,17.0,60,0.00,,,0.01,meteohub,2013-01-18 14:06:00,
2013-01-18 09:08:00,32.4,19.6,30.36,WSW,249,4.0,17.0,59,0.00,,,0.01,meteohub,2013-01-18 14:08:00,
2013-01-18 09:09:00,32.4,19.9,30.36,West,273,2.0,17.0,60,0.00,,,0.01,meteohub,2013-01-18 14:09:00,
2013-01-18 09:11:00,32.4,19.9,30.37,WSW,248,6.0,15.0,60,0.00,,,0.01,meteohub,2013-01-18 14:11:00,
2013-01-18 09:12:00,32.4,19.9,30.36,WSW,248,6.0,15.0,60,0.00,,,0.01,meteohub,2013-01-18 14:12:00,
2013-01-18 09:13:00,32.4,19.6,30.37,WSW,240,4.0,15.0,59,0.00,,,0.01,meteohub,2013-01-18 14:13:00,
2013-01-18 09:15:00,32.2,19.9,30.37,NW,308,3.0,15.0,60,0.00,,,0.01,meteohub,2013-01-18 14:15:00,
2013-01-18 09:17:00,32.0,19.8,30.37,WNW,302,3.0,12.0,60,0.00,,,0.01,meteohub,2013-01-18 14:17:00,
2013-01-18 09:19:00,32.0,19.8,30.38,WNW,290,3.0,12.0,60,0.00,,,0.01,meteohub,2013-01-18 14:19:00,
2013-01-18 09:20:00,32.0,19.2,30.38,SSW,192,2.0,11.0,59,0.00,,,0.01,meteohub,2013-01-18 14:20:00,
2013-01-18 09:22:00,32.2,19.9,30.38,SSW,200,3.0,11.0,60,0.00,,,0.01,meteohub,2013-01-18 14:22:00,
2013-01-18 09:24:00,32.5,18.5,30.38,South,190,5.0,11.0,56,0.00,,,0.01,meteohub,2013-01-18 14:24:00,
2013-01-18 09:26:00,32.5,18.1,30.38,WSW,246,7.0,13.0,55,0.00,,,0.01,meteohub,2013-01-18 14:26:00,
2013-01-18 09:27:00,32.5,18.5,30.38,SW,234,2.0,13.0,56,0.00,,,0.01,meteohub,2013-01-18 14:27:00,
2013-01-18 09:29:00,32.7,18.3,30.39,NNW,346,8.0,13.0,55,0.00,,,0.01,meteohub,2013-01-18 14:29:00,
2013-01-18 09:31:00,32.9,18.5,30.39,SSW,201,2.0,18.0,55,0.00,,,0.01,meteohub,2013-01-18 14:31:00,
2013-01-18 09:32:00,32.9,18.5,30.39,SSW,201,8.0,18.0,55,0.00,,,0.01,meteohub,2013-01-18 14:32:00,
2013-01-18 09:34:00,33.1,17.8,30.40,NE,38,4.0,18.0,53,0.00,,,0.01,meteohub,2013-01-18 14:34:00,
2013-01-18 09:36:00,33.1,17.4,30.40,West,277,6.0,18.0,52,0.00,,,0.01,meteohub,2013-01-18 14:36:00,
2013-01-18 09:38:00,32.7,15.6,30.40,NNW,329,3.0,18.0,49,0.00,,,0.01,meteohub,2013-01-18 14:38:00,
2013-01-18 09:39:00,32.7,15.6,30.40,West,281,4.0,18.0,49,0.00,,,0.01,meteohub,2013-01-18 14:39:00,
2013-01-18 09:41:00,32.5,16.0,30.40,WNW,288,5.0,13.0,50,0.00,,,0.01,meteohub,2013-01-18 14:41:00,
2013-01-18 09:42:00,32.5,16.0,30.40,West,281,5.0,13.0,50,0.00,,,0.01,meteohub,2013-01-18 14:42:00,
2013-01-18 09:43:00,32.7,16.2,30.40,West,269,3.0,13.0,50,0.00,,,0.01,meteohub,2013-01-18 14:43:00,
2013-01-18 09:45:00,32.9,16.7,30.40,WNW,292,1.0,13.0,51,0.00,,,0.01,meteohub,2013-01-18 14:45:00,
2013-01-18 09:46:00,33.1,16.5,30.40,SW,229,10.0,13.0,50,0.00,,,0.01,meteohub,2013-01-18 14:46:00,
2013-01-18 09:47:00,33.1,16.0,30.40,North,5,2.0,13.0,49,0.00,,,0.01,meteohub,2013-01-18 14:47:00,
2013-01-18 09:48:00,33.1,16.5,30.40,NNW,327,6.0,13.0,50,0.00,,,0.01,meteohub,2013-01-18 14:48:00,
2013-01-18 09:50:00,33.1,16.5,30.40,SW,233,2.0,13.0,50,0.00,,,0.01,meteohub,2013-01-18 14:50:00,
2013-01-18 09:52:00,33.3,16.7,30.40,South,187,3.0,13.0,50,0.00,,,0.01,meteohub,2013-01-18 14:52:00,
2013-01-18 09:53:00,33.3,16.2,30.40,SW,236,6.0,13.0,49,0.00,,,0.01,meteohub,2013-01-18 14:53:00,
2013-01-18 09:55:00,33.3,16.2,30.40,NNW,338,7.0,11.0,49,0.00,,,0.01,meteohub,2013-01-18 14:55:00,
2013-01-18 09:57:00,33.3,16.2,30.40,WNW,300,3.0,11.0,49,0.00,,,0.01,meteohub,2013-01-18 14:57:00,
2013-01-18 09:59:00,33.1,16.0,30.41,SE,138,5.0,11.0,49,0.00,,,0.01,meteohub,2013-01-18 14:59:00,
2013-01-18 10:00:00,33.1,16.0,30.41,WNW,300,8.0,17.0,49,0.00,,,0.01,meteohub,2013-01-18 15:00:00,
2013-01-18 10:02:00,32.9,15.4,30.41,West,268,10.0,17.0,48,0.00,,,0.01,meteohub,2013-01-18 15:02:00,
2013-01-18 10:04:00,32.7,15.3,30.41,West,277,6.0,17.0,48,0.00,,,0.01,meteohub,2013-01-18 15:04:00,
2013-01-18 10:05:00,32.7,15.3,30.41,SW,223,2.0,17.0,48,0.00,,,0.01,meteohub,2013-01-18 15:05:00,
2013-01-18 10:07:00,32.7,15.3,30.41,West,279,12.0,17.0,48,0.00,,,0.01,meteohub,2013-01-18 15:07:00,
2013-01-18 10:08:00,32.7,15.3,30.41,SW,234,5.0,17.0,48,0.00,,,0.01,meteohub,2013-01-18 15:08:00,
2013-01-18 10:09:00,32.7,15.3,30.41,SSE,150,3.0,17.0,48,0.00,,,0.01,meteohub,2013-01-18 15:09:00,
2013-01-18 10:10:00,32.7,15.3,30.42,SSE,167,3.0,20.0,48,0.00,,,0.01,meteohub,2013-01-18 15:10:00,
2013-01-18 10:12:00,33.1,16.0,30.41,WNW,298,3.0,20.0,49,0.00,,,0.01,meteohub,2013-01-18 15:12:00,
2013-01-18 10:13:00,33.1,15.4,30.41,SW,219,2.0,20.0,48,0.00,,,0.01,meteohub,2013-01-18 15:13:00,
2013-01-18 10:14:00,33.1,15.4,30.41,ESE,103,4.0,20.0,48,0.00,,,0.01,meteohub,2013-01-18 15:14:00,
2013-01-18 10:16:00,33.3,15.6,30.41,ENE,72,3.0,20.0,48,0.00,,,0.01,meteohub,2013-01-18 15:16:00,
2013-01-18 10:18:00,33.3,14.7,30.41,North,355,7.0,20.0,46,0.00,,,0.01,meteohub,2013-01-18 15:18:00,
2013-01-18 10:19:00,33.1,15.1,30.41,SW,223,2.0,20.0,47,0.00,,,0.01,meteohub,2013-01-18 15:19:00,
2013-01-18 10:21:00,33.3,15.6,30.41,North,5,6.0,20.0,48,0.00,,,0.01,meteohub,2013-01-18 15:21:00,
2013-01-18 10:23:00,33.3,14.7,30.41,East,90,3.0,20.0,46,0.00,,,0.01,meteohub,2013-01-18 15:23:00,
2013-01-18 10:24:00,33.3,14.2,30.41,West,261,6.0,20.0,45,0.00,,,0.01,meteohub,2013-01-18 15:24:00,
2013-01-18 10:25:00,33.3,14.2,30.41,East,98,6.0,20.0,45,0.00,,,0.01,meteohub,2013-01-18 15:25:00,
2013-01-18 10:26:00,33.3,14.2,30.41,West,261,5.0,13.0,45,0.00,,,0.01,meteohub,2013-01-18 15:26:00,
2013-01-18 10:29:00,33.3,14.2,30.41,WNW,299,5.0,13.0,45,0.00,,,0.01,meteohub,2013-01-18 15:29:00,
2013-01-18 10:30:00,33.3,13.6,30.41,SSW,192,2.0,13.0,44,0.00,,,0.01,meteohub,2013-01-18 15:30:00,
2013-01-18 10:31:00,33.3,13.6,30.41,WNW,292,4.0,13.0,44,0.00,,,0.01,meteohub,2013-01-18 15:31:00,
2013-01-18 10:34:00,33.1,13.5,30.41,WSW,240,5.0,13.0,44,0.00,,,0.01,meteohub,2013-01-18 15:34:00,
2013-01-18 10:35:00,33.1,13.1,30.41,WSW,238,5.0,13.0,43,0.00,,,0.01,meteohub,2013-01-18 15:35:00,
2013-01-18 10:36:00,33.1,13.5,30.41,West,269,3.0,13.0,44,0.00,,,0.01,meteohub,2013-01-18 15:36:00,
2013-01-18 10:39:00,33.1,14.0,30.41,SSE,155,5.0,13.0,45,0.00,,,0.01,meteohub,2013-01-18 15:39:00,
2013-01-18 10:40:00,33.1,13.5,30.41,South,171,2.0,13.0,44,0.00,,,0.01,meteohub,2013-01-18 15:40:00,
2013-01-18 10:42:00,33.1,14.0,30.41,West,269,6.0,15.0,45,0.00,,,0.01,meteohub,2013-01-18 15:42:00,
2013-01-18 10:44:00,33.1,13.5,30.41,West,259,3.0,15.0,44,0.00,,,0.01,meteohub,2013-01-18 15:44:00,
2013-01-18 10:45:00,33.1,13.1,30.41,SW,226,4.0,15.0,43,0.00,,,0.01,meteohub,2013-01-18 15:45:00,
2013-01-18 10:47:00,33.1,13.1,30.41,West,274,8.0,15.0,43,0.00,,,0.01,meteohub,2013-01-18 15:47:00,
2013-01-18 10:49:00,32.7,13.3,30.41,West,281,10.0,15.0,44,0.00,,,0.01,meteohub,2013-01-18 15:49:00,
2013-01-18 10:51:00,32.7,13.3,30.42,SW,232,4.0,15.0,44,0.00,,,0.01,meteohub,2013-01-18 15:51:00,
2013-01-18 10:52:00,32.9,13.8,30.42,North,5,4.0,15.0,45,0.00,,,0.01,meteohub,2013-01-18 15:52:00,
2013-01-18 10:54:00,33.1,13.5,30.42,West,271,10.0,15.0,44,0.00,,,0.01,meteohub,2013-01-18 15:54:00,
2013-01-18 10:55:00,33.1,13.5,30.42,WSW,238,3.0,14.0,44,0.00,,,0.01,meteohub,2013-01-18 15:55:00,
2013-01-18 10:56:00,33.1,13.5,30.42,SSE,154,3.0,14.0,44,0.00,,,0.01,meteohub,2013-01-18 15:56:00,
2013-01-18 10:57:00,33.1,14.0,30.42,West,261,3.0,14.0,45,0.00,,,0.01,meteohub,2013-01-18 15:57:00,
2013-01-18 10:59:00,33.3,13.6,30.42,WSW,248,3.0,14.0,44,0.00,,,0.01,meteohub,2013-01-18 15:59:00,
2013-01-18 11:01:00,33.3,13.6,30.42,West,268,3.0,14.0,44,0.00,,,0.01,meteohub,2013-01-18 16:01:00,
2013-01-18 11:02:00,33.3,13.6,30.42,SSE,166,3.0,14.0,44,0.00,,,0.01,meteohub,2013-01-18 16:02:00,
2013-01-18 11:05:00,33.3,13.1,30.42,WNW,288,10.0,12.0,43,0.00,,,0.01,meteohub,2013-01-18 16:05:00,
2013-01-18 11:06:00,33.1,13.1,30.42,WNW,282,7.0,12.0,43,0.00,,,0.01,meteohub,2013-01-18 16:06:00,
2013-01-18 11:07:00,32.9,12.9,30.42,West,267,12.0,12.0,43,0.00,,,0.01,meteohub,2013-01-18 16:07:00,
2013-01-18 11:10:00,32.9,13.5,30.42,NW,312,8.0,15.0,44,0.00,,,0.01,meteohub,2013-01-18 16:10:00,
2013-01-18 11:11:00,32.9,13.5,30.42,South,170,4.0,15.0,44,0.00,,,0.01,meteohub,2013-01-18 16:11:00,
2013-01-18 11:12:00,33.1,13.5,30.43,NW,324,10.0,15.0,44,0.00,,,0.01,meteohub,2013-01-18 16:12:00,
2013-01-18 11:16:00,32.7,12.7,30.42,SW,236,4.0,17.0,43,0.00,,,0.01,meteohub,2013-01-18 16:16:00,
2013-01-18 11:17:00,32.7,12.7,30.42,ESE,120,7.0,17.0,43,0.00,,,0.01,meteohub,2013-01-18 16:17:00,
2013-01-18 11:18:00,32.7,12.7,30.42,SW,223,5.0,17.0,43,0.00,,,0.01,meteohub,2013-01-18 16:18:00,
2013-01-18 11:21:00,32.9,12.9,30.42,NW,305,14.0,17.0,43,0.00,,,0.01,meteohub,2013-01-18 16:21:00,
2013-01-18 11:22:00,32.7,12.7,30.42,NW,324,6.0,17.0,43,0.00,,,0.01,meteohub,2013-01-18 16:22:00,
2013-01-18 11:23:00,32.9,13.5,30.42,WNW,300,6.0,17.0,44,0.00,,,0.01,meteohub,2013-01-18 16:23:00,
2013-01-18 11:26:00,33.1,13.5,30.42,WNW,284,11.0,17.0,44,0.00,,,0.01,meteohub,2013-01-18 16:26:00,
2013-01-18 11:27:00,33.1,13.1,30.42,West,271,13.0,17.0,43,0.00,,,0.01,meteohub,2013-01-18 16:27:00,
2013-01-18 11:28:00,32.7,12.2,30.43,NW,314,5.0,17.0,42,0.00,,,0.01,meteohub,2013-01-18 16:28:00,
2013-01-18 11:31:00,32.9,12.9,30.43,WSW,250,3.0,17.0,43,0.00,,,0.01,meteohub,2013-01-18 16:31:00,
2013-01-18 11:32:00,33.1,13.1,30.43,WNW,292,5.0,17.0,43,0.00,,,0.01,meteohub,2013-01-18 16:32:00,
2013-01-18 11:33:00,33.1,13.1,30.43,NNW,344,10.0,17.0,43,0.00,,,0.01,meteohub,2013-01-18 16:33:00,
2013-01-18 11:36:00,33.3,12.6,30.43,NNE,26,7.0,17.0,42,0.00,,,0.01,meteohub,2013-01-18 16:36:00,
2013-01-18 11:37:00,33.3,13.1,30.43,ESE,103,3.0,17.0,43,0.00,,,0.01,meteohub,2013-01-18 16:37:00,
2013-01-18 11:38:00,33.3,13.1,30.43,NE,45,4.0,17.0,43,0.00,,,0.01,meteohub,2013-01-18 16:38:00,
2013-01-18 11:41:00,33.4,12.7,30.43,NNE,17,1.0,17.0,42,0.00,,,0.01,meteohub,2013-01-18 16:41:00,
2013-01-18 11:42:00,33.4,12.7,30.43,WNW,289,2.0,17.0,42,0.00,,,0.01,meteohub,2013-01-18 16:42:00,
2013-01-18 11:43:00,33.4,12.2,30.43,WNW,286,3.0,17.0,41,0.00,,,0.01,meteohub,2013-01-18 16:43:00,
2013-01-18 11:46:00,33.6,12.4,30.43,North,0,5.0,15.0,41,0.00,,,0.01,meteohub,2013-01-18 16:46:00,
2013-01-18 11:47:00,33.6,12.4,30.43,SW,228,5.0,15.0,41,0.00,,,0.01,meteohub,2013-01-18 16:47:00,
2013-01-18 11:48:00,33.6,11.8,30.43,WSW,242,1.0,15.0,40,0.00,,,0.01,meteohub,2013-01-18 16:48:00,
2013-01-18 11:49:00,33.6,11.8,30.43,NNW,327,8.0,15.0,40,0.00,,,0.01,meteohub,2013-01-18 16:49:00,
2013-01-18 11:52:00,33.6,11.8,30.43,WNW,286,6.0,15.0,40,0.00,,,0.01,meteohub,2013-01-18 16:52:00,
2013-01-18 11:53:00,33.6,11.8,30.42,East,86,6.0,15.0,40,0.00,,,0.01,meteohub,2013-01-18 16:53:00,
2013-01-18 11:54:00,33.4,11.1,30.42,ESE,111,9.0,15.0,39,0.00,,,0.01,meteohub,2013-01-18 16:54:00,
2013-01-18 11:57:00,33.3,11.5,30.42,WNW,294,4.0,15.0,40,0.00,,,0.01,meteohub,2013-01-18 16:57:00,
2013-01-18 11:58:00,33.3,11.5,30.42,WNW,286,5.0,15.0,40,0.00,,,0.01,meteohub,2013-01-18 16:58:00,
2013-01-18 11:59:00,33.3,11.5,30.42,WNW,294,1.0,15.0,40,0.00,,,0.01,meteohub,2013-01-18 16:59:00,
2013-01-18 12:03:00,33.4,11.7,30.42,NNE,22,7.0,11.0,40,0.00,,,0.01,meteohub,2013-01-18 17:03:00,
2013-01-18 12:04:00,33.4,11.7,30.42,South,177,2.0,11.0,40,0.00,,,0.01,meteohub,2013-01-18 17:04:00,
2013-01-18 12:08:00,33.6,11.8,30.41,NNE,27,5.0,19.0,40,0.00,,,0.01,meteohub,2013-01-18 17:08:00,
2013-01-18 12:09:00,33.6,11.3,30.41,NNW,329,2.0,19.0,39,0.00,,,0.01,meteohub,2013-01-18 17:09:00,
2013-01-18 12:13:00,33.6,11.3,30.41,East,88,3.0,19.0,39,0.00,,,0.01,meteohub,2013-01-18 17:13:00,
2013-01-18 12:14:00,33.6,11.3,30.41,SW,229,9.0,19.0,39,0.00,,,0.01,meteohub,2013-01-18 17:14:00,
2013-01-18 12:19:00,34.0,12.7,30.41,East,82,3.0,19.0,41,0.00,,,0.01,meteohub,2013-01-18 17:19:00,
2013-01-18 12:21:00,34.0,12.2,30.41,SW,223,2.0,11.0,40,0.00,,,0.01,meteohub,2013-01-18 17:21:00,
2013-01-18 12:24:00,33.8,13.1,30.41,North,5,4.0,11.0,42,0.00,,,0.01,meteohub,2013-01-18 17:24:00,
2013-01-18 12:26:00,34.0,12.2,30.41,South,178,2.0,12.0,40,0.00,,,0.01,meteohub,2013-01-18 17:26:00,
2013-01-18 12:29:00,33.8,12.0,30.41,South,170,3.0,12.0,40,0.00,,,0.01,meteohub,2013-01-18 17:29:00,
2013-01-18 12:30:00,33.6,11.3,30.41,West,281,3.0,12.0,39,0.00,,,0.01,meteohub,2013-01-18 17:30:00,
2013-01-18 12:31:00,33.6,11.3,30.41,WNW,302,4.0,12.0,39,0.00,,,0.01,meteohub,2013-01-18 17:31:00,
2013-01-18 12:34:00,33.4,11.1,30.41,ENE,59,5.0,12.0,39,0.00,,,0.01,meteohub,2013-01-18 17:34:00,
2013-01-18 12:36:00,33.4,11.1,30.41,North,350,2.0,12.0,39,0.00,,,0.01,meteohub,2013-01-18 17:36:00,
2013-01-18 12:40:00,33.6,12.4,30.42,WNW,294,6.0,12.0,41,0.00,,,0.01,meteohub,2013-01-18 17:40:00,
2013-01-18 12:41:00,33.6,11.8,30.41,West,281,3.0,12.0,40,0.00,,,0.01,meteohub,2013-01-18 17:41:00,
2013-01-18 12:42:00,33.4,11.1,30.41,SE,139,1.0,12.0,39,0.00,,,0.01,meteohub,2013-01-18 17:42:00,
2013-01-18 12:45:00,33.3,10.4,30.42,WNW,300,3.0,12.0,38,0.00,,,0.01,meteohub,2013-01-18 17:45:00,
2013-01-18 12:47:00,33.3,10.9,30.42,WSW,249,3.0,12.0,39,0.00,,,0.01,meteohub,2013-01-18 17:47:00,
2013-01-18 12:48:00,33.3,10.9,30.42,NNW,340,3.0,12.0,39,0.00,,,0.01,meteohub,2013-01-18 17:48:00,
2013-01-18 12:50:00,33.3,10.9,30.42,NNE,30,7.0,13.0,39,0.00,,,0.01,meteohub,2013-01-18 17:50:00,
2013-01-18 12:52:00,33.3,10.9,30.42,North,5,2.0,13.0,39,0.00,,,0.01,meteohub,2013-01-18 17:52:00,
2013-01-18 12:53:00,33.4,11.7,30.42,WNW,301,4.0,13.0,40,0.00,,,0.01,meteohub,2013-01-18 17:53:00,
2013-01-18 12:55:00,33.4,11.1,30.42,West,273,2.0,13.0,39,0.00,,,0.01,meteohub,2013-01-18 17:55:00,
2013-01-18 12:56:00,33.4,10.6,30.42,NW,317,1.0,13.0,38,0.00,,,0.01,meteohub,2013-01-18 17:56:00,
2013-01-18 12:57:00,33.6,10.8,30.43,WNW,294,5.0,13.0,38,0.00,,,0.01,meteohub,2013-01-18 17:57:00,
2013-01-18 12:59:00,33.6,11.3,30.42,WSW,254,2.0,13.0,39,0.00,,,0.01,meteohub,2013-01-18 17:59:00,
2013-01-18 13:00:00,33.6,11.3,30.43,West,262,1.0,13.0,39,0.00,,,0.01,meteohub,2013-01-18 18:00:00,
2013-01-18 13:01:00,33.8,11.5,30.42,ESE,109,2.0,13.0,39,0.00,,,0.01,meteohub,2013-01-18 18:01:00,
2013-01-18 13:03:00,33.8,11.5,30.43,West,276,1.0,13.0,39,0.00,,,0.01,meteohub,2013-01-18 18:03:00,
2013-01-18 13:04:00,33.6,10.8,30.43,NNW,327,0.0,13.0,38,0.00,,,0.01,meteohub,2013-01-18 18:04:00,
2013-01-18 13:06:00,33.6,11.3,30.43,West,261,1.0,10.0,39,0.00,,,0.01,meteohub,2013-01-18 18:06:00,
2013-01-18 13:08:00,33.6,11.3,30.43,West,278,9.0,10.0,39,0.00,,,0.01,meteohub,2013-01-18 18:08:00,
2013-01-18 13:09:00,33.6,11.3,30.42,NW,312,5.0,10.0,39,0.00,,,0.01,meteohub,2013-01-18 18:09:00,
2013-01-18 13:11:00,33.4,11.1,30.43,WNW,294,5.0,8.0,39,0.00,,,0.01,meteohub,2013-01-18 18:11:00,
2013-01-18 13:12:00,33.3,10.9,30.42,WNW,296,6.0,8.0,39,0.00,,,0.01,meteohub,2013-01-18 18:12:00,
2013-01-18 13:13:00,33.3,11.5,30.42,WNW,302,6.0,8.0,40,0.00,,,0.01,meteohub,2013-01-18 18:13:00,
2013-01-18 13:14:00,33.1,11.3,30.42,WNW,302,5.0,8.0,40,0.00,,,0.01,meteohub,2013-01-18 18:14:00,
2013-01-18 13:16:00,33.1,12.0,30.42,WNW,298,3.0,11.0,41,0.00,,,0.01,meteohub,2013-01-18 18:16:00,
2013-01-18 13:17:00,33.1,12.0,30.42,SW,234,2.0,11.0,41,0.00,,,0.01,meteohub,2013-01-18 18:17:00,
2013-01-18 13:18:00,33.1,12.0,30.42,NW,308,3.0,11.0,41,0.00,,,0.01,meteohub,2013-01-18 18:18:00,
2013-01-18 13:19:00,33.3,12.0,30.42,West,270,5.0,11.0,41,0.00,,,0.01,meteohub,2013-01-18 18:19:00,
2013-01-18 13:22:00,33.3,11.5,30.42,NNW,346,2.0,11.0,40,0.00,,,0.01,meteohub,2013-01-18 18:22:00,
2013-01-18 13:23:00,33.1,12.0,30.42,West,260,3.0,11.0,41,0.00,,,0.01,meteohub,2013-01-18 18:23:00,
2013-01-18 13:24:00,33.3,12.6,30.42,NE,47,3.0,11.0,42,0.00,,,0.01,meteohub,2013-01-18 18:24:00,
2013-01-18 13:27:00,33.4,12.7,30.42,North,5,1.0,11.0,42,0.00,,,0.01,meteohub,2013-01-18 18:27:00,
2013-01-18 13:29:00,33.6,12.9,30.42,NW,320,2.0,11.0,42,0.00,,,0.01,meteohub,2013-01-18 18:29:00,
2013-01-18 13:32:00,34.0,12.7,30.42,SW,224,1.0,10.0,41,0.00,,,0.01,meteohub,2013-01-18 18:32:00,
2013-01-18 13:34:00,34.0,12.2,30.42,West,275,2.0,10.0,40,0.00,,,0.01,meteohub,2013-01-18 18:34:00,
2013-01-18 13:35:00,34.0,12.2,30.42,West,272,7.0,10.0,40,0.00,,,0.01,meteohub,2013-01-18 18:35:00,
2013-01-18 13:37:00,34.2,12.9,30.43,SW,221,1.0,10.0,41,0.00,,,0.01,meteohub,2013-01-18 18:37:00,
2013-01-18 13:39:00,34.2,12.4,30.43,NE,37,3.0,10.0,40,0.00,,,0.01,meteohub,2013-01-18 18:39:00,
2013-01-18 13:40:00,34.0,12.2,30.42,NNW,327,4.0,10.0,40,0.00,,,0.01,meteohub,2013-01-18 18:40:00,
2013-01-18 13:42:00,34.2,12.9,30.42,WNW,298,2.0,7.0,41,0.00,,,0.01,meteohub,2013-01-18 18:42:00,
2013-01-18 13:43:00,34.2,12.4,30.43,NNE,31,1.0,7.0,40,0.00,,,0.01,meteohub,2013-01-18 18:43:00,
2013-01-18 13:45:00,34.3,12.6,30.43,WNW,290,4.0,7.0,40,0.00,,,0.01,meteohub,2013-01-18 18:45:00,
2013-01-18 13:48:00,34.0,11.1,30.43,WNW,290,2.0,10.0,38,0.00,,,0.01,meteohub,2013-01-18 18:48:00,
2013-01-18 13:50:00,34.0,11.7,30.43,SSW,195,1.0,10.0,39,0.00,,,0.01,meteohub,2013-01-18 18:50:00,
2013-01-18 13:52:00,34.0,11.7,30.43,SW,227,1.0,10.0,39,0.00,,,0.01,meteohub,2013-01-18 18:52:00,
2013-01-18 13:53:00,34.0,11.7,30.43,NE,52,3.0,10.0,39,0.00,,,0.01,meteohub,2013-01-18 18:53:00,
2013-01-18 13:56:00,34.0,12.7,30.43,WNW,287,4.0,10.0,41,0.00,,,0.01,meteohub,2013-01-18 18:56:00,
2013-01-18 13:57:00,34.0,12.7,30.43,WNW,296,3.0,10.0,41,0.00,,,0.01,meteohub,2013-01-18 18:57:00,
2013-01-18 13:58:00,34.2,12.9,30.43,West,277,3.0,10.0,41,0.00,,,0.01,meteohub,2013-01-18 18:58:00,
2013-01-18 14:01:00,34.2,13.5,30.44,North,5,2.0,10.0,42,0.00,,,0.01,meteohub,2013-01-18 19:01:00,
2013-01-18 14:02:00,34.2,12.9,30.44,NE,47,3.0,10.0,41,0.00,,,0.01,meteohub,2013-01-18 19:02:00,
2013-01-18 14:03:00,34.3,12.6,30.44,ENE,67,2.0,10.0,40,0.00,,,0.01,meteohub,2013-01-18 19:03:00,
2013-01-18 14:04:00,34.3,12.6,30.44,WNW,293,3.0,10.0,40,0.00,,,0.01,meteohub,2013-01-18 19:04:00,
2013-01-18 14:06:00,34.3,12.0,30.44,WNW,292,1.0,9.0,39,0.00,,,0.01,meteohub,2013-01-18 19:06:00,
2013-01-18 14:07:00,34.3,12.6,30.44,WNW,292,2.0,9.0,40,0.00,,,0.01,meteohub,2013-01-18 19:07:00,
2013-01-18 14:08:00,34.3,12.6,30.44,North,0,4.0,9.0,40,0.00,,,0.01,meteohub,2013-01-18 19:08:00,
2013-01-18 14:09:00,34.3,12.6,30.44,SSW,200,1.0,9.0,40,0.00,,,0.01,meteohub,2013-01-18 19:09:00,
2013-01-18 14:11:00,34.3,12.0,30.44,North,0,3.0,9.0,39,0.00,,,0.01,meteohub,2013-01-18 19:11:00,
2013-01-18 14:13:00,34.3,10.8,30.44,NNE,29,5.0,9.0,37,0.00,,,0.01,meteohub,2013-01-18 19:13:00,
2013-01-18 14:14:00,34.2,10.0,30.44,SE,136,0.0,9.0,36,0.00,,,0.01,meteohub,2013-01-18 19:14:00,
2013-01-18 14:16:00,34.2,11.1,30.44,SE,146,1.0,9.0,38,0.00,,,0.01,meteohub,2013-01-18 19:16:00,
2013-01-18 14:18:00,34.2,12.4,30.44,WNW,294,2.0,9.0,40,0.00,,,0.01,meteohub,2013-01-18 19:18:00,
2013-01-18 14:19:00,34.2,12.4,30.44,NNW,348,3.0,9.0,40,0.00,,,0.01,meteohub,2013-01-18 19:19:00,
2013-01-18 14:21:00,34.0,11.7,30.44,WNW,294,4.0,9.0,39,0.00,,,0.01,meteohub,2013-01-18 19:21:00,
2013-01-18 14:23:00,34.0,11.7,30.44,West,281,0.0,9.0,39,0.00,,,0.01,meteohub,2013-01-18 19:23:00,
2013-01-18 14:25:00,34.0,12.7,30.44,West,275,2.0,9.0,41,0.00,,,0.01,meteohub,2013-01-18 19:25:00,
2013-01-18 14:26:00,34.2,12.9,30.44,NW,304,1.0,9.0,41,0.00,,,0.01,meteohub,2013-01-18 19:26:00,
2013-01-18 14:29:00,34.3,13.6,30.44,NNW,343,2.0,9.0,42,0.00,,,0.01,meteohub,2013-01-18 19:29:00,
2013-01-18 14:30:00,34.3,12.6,30.44,West,275,1.0,9.0,40,0.00,,,0.01,meteohub,2013-01-18 19:30:00,
2013-01-18 14:31:00,34.3,12.6,30.44,WSW,248,3.0,8.0,40,0.00,,,0.01,meteohub,2013-01-18 19:31:00,
2013-01-18 14:34:00,34.5,12.7,30.44,NE,35,3.0,8.0,40,0.00,,,0.01,meteohub,2013-01-18 19:34:00,
2013-01-18 14:35:00,34.5,12.7,30.44,NNW,331,5.0,8.0,40,0.00,,,0.01,meteohub,2013-01-18 19:35:00,
2013-01-18 14:36:00,34.3,12.6,30.44,West,263,4.0,8.0,40,0.00,,,0.01,meteohub,2013-01-18 19:36:00,
2013-01-18 14:37:00,34.3,13.1,30.44,NW,306,6.0,8.0,41,0.00,,,0.01,meteohub,2013-01-18 19:37:00,
2013-01-18 14:39:00,34.5,12.7,30.44,NW,309,2.0,8.0,40,0.00,,,0.01,meteohub,2013-01-18 19:39:00,
2013-01-18 14:40:00,34.5,12.7,30.44,West,275,2.0,8.0,40,0.00,,,0.01,meteohub,2013-01-18 19:40:00,
2013-01-18 14:42:00,34.5,12.0,30.44,NNW,331,1.0,8.0,39,0.00,,,0.01,meteohub,2013-01-18 19:42:00,
2013-01-18 14:44:00,34.5,12.0,30.44,WSW,257,0.0,8.0,39,0.00,,,0.01,meteohub,2013-01-18 19:44:00,
2013-01-18 14:45:00,34.7,12.9,30.44,NW,323,5.0,8.0,40,0.00,,,0.01,meteohub,2013-01-18 19:45:00,
2013-01-18 14:47:00,34.3,11.3,30.44,WSW,254,1.0,8.0,38,0.00,,,0.01,meteohub,2013-01-18 19:47:00,
2013-01-18 14:48:00,34.3,11.3,30.44,WSW,254,0.0,8.0,38,0.00,,,0.01,meteohub,2013-01-18 19:48:00,
2013-01-18 14:49:00,34.2,11.8,30.44,WNW,290,0.0,8.0,39,0.00,,,0.01,meteohub,2013-01-18 19:49:00,
2013-01-18 14:50:00,34.2,12.4,30.44,West,279,2.0,9.0,40,0.00,,,0.01,meteohub,2013-01-18 19:50:00,
2013-01-18 14:53:00,34.3,12.0,30.44,WNW,284,3.0,9.0,39,0.00,,,0.01,meteohub,2013-01-18 19:53:00,
2013-01-18 14:55:00,34.3,12.6,30.44,West,281,0.0,9.0,40,0.00,,,0.01,meteohub,2013-01-18 19:55:00,
2013-01-18 14:56:00,34.3,12.6,30.44,West,262,5.0,9.0,40,0.00,,,0.01,meteohub,2013-01-18 19:56:00,
2013-01-18 14:58:00,34.3,12.6,30.44,WNW,284,3.0,9.0,40,0.00,,,0.01,meteohub,2013-01-18 19:58:00,
2013-01-18 14:59:00,34.2,12.4,30.44,West,259,2.0,9.0,40,0.00,,,0.01,meteohub,2013-01-18 19:59:00,
2013-01-18 15:00:00,34.3,12.6,30.44,ESE,118,1.0,9.0,40,0.00,,,0.01,meteohub,2013-01-18 20:00:00,
2013-01-18 15:01:00,34.3,12.0,30.44,WNW,299,2.0,10.0,39,0.00,,,0.01,meteohub,2013-01-18 20:01:00,
2013-01-18 15:03:00,34.3,12.0,30.45,WSW,256,1.0,10.0,39,0.00,,,0.01,meteohub,2013-01-18 20:03:00,
2013-01-18 15:04:00,34.3,12.0,30.45,WNW,293,0.0,10.0,39,0.00,,,0.01,meteohub,2013-01-18 20:04:00,
2013-01-18 15:06:00,34.3,11.3,30.45,WNW,292,1.0,10.0,38,0.00,,,0.01,meteohub,2013-01-18 20:06:00,
2013-01-18 15:07:00,34.3,12.0,30.45,NNE,23,1.0,10.0,39,0.00,,,0.01,meteohub,2013-01-18 20:07:00,
2013-01-18 15:08:00,34.3,11.3,30.45,NNW,340,0.0,10.0,38,0.00,,,0.01,meteohub,2013-01-18 20:08:00,
2013-01-18 15:09:00,34.3,12.0,30.45,NNW,346,1.0,10.0,39,0.00,,,0.01,meteohub,2013-01-18 20:09:00,
2013-01-18 15:11:00,34.5,12.0,30.45,NW,308,3.0,10.0,39,0.00,,,0.01,meteohub,2013-01-18 20:11:00,
2013-01-18 15:12:00,34.5,12.0,30.45,WNW,299,0.0,10.0,39,0.00,,,0.01,meteohub,2013-01-18 20:12:00,
2013-01-18 15:13:00,34.5,12.0,30.45,WNW,302,2.0,10.0,39,0.00,,,0.01,meteohub,2013-01-18 20:13:00,
2013-01-18 15:14:00,34.7,12.2,30.45,SSW,213,2.0,10.0,39,0.00,,,0.01,meteohub,2013-01-18 20:14:00,
2013-01-18 15:16:00,34.7,12.2,30.45,WNW,290,1.0,7.0,39,0.00,,,0.01,meteohub,2013-01-18 20:16:00,
2013-01-18 15:18:00,34.7,11.7,30.45,WSW,248,1.0,7.0,38,0.00,,,0.01,meteohub,2013-01-18 20:18:00,
2013-01-18 15:19:00,34.7,11.7,30.45,North,0,0.0,7.0,38,0.00,,,0.01,meteohub,2013-01-18 20:19:00,
2013-01-18 15:21:00,34.9,11.3,30.45,NNW,334,1.0,6.0,37,0.00,,,0.01,meteohub,2013-01-18 20:21:00,
2013-01-18 15:23:00,34.9,11.8,30.46,WNW,296,0.0,6.0,38,0.00,,,0.01,meteohub,2013-01-18 20:23:00,
2013-01-18 15:25:00,34.9,11.8,30.46,WSW,244,1.0,6.0,38,0.00,,,0.01,meteohub,2013-01-18 20:25:00,
2013-01-18 15:26:00,35.1,12.0,30.46,WSW,244,0.0,6.0,38,0.00,,,0.01,meteohub,2013-01-18 20:26:00,
2013-01-18 15:28:00,34.9,11.8,30.46,WSW,254,3.0,6.0,38,0.00,,,0.01,meteohub,2013-01-18 20:28:00,
2013-01-18 15:29:00,34.9,11.8,30.46,NW,313,2.0,6.0,38,0.00,,,0.01,meteohub,2013-01-18 20:29:00,
2013-01-18 15:31:00,34.5,11.5,30.45,NW,306,2.0,7.0,38,0.00,,,0.01,meteohub,2013-01-18 20:31:00,
2013-01-18 15:33:00,34.3,12.0,30.45,North,0,1.0,7.0,39,0.00,,,0.01,meteohub,2013-01-18 20:33:00,
2013-01-18 15:34:00,34.3,12.0,30.45,NE,43,1.0,7.0,39,0.00,,,0.01,meteohub,2013-01-18 20:34:00,
2013-01-18 15:36:00,34.3,12.0,30.45,NE,46,1.0,7.0,39,0.00,,,0.01,meteohub,2013-01-18 20:36:00,
2013-01-18 15:39:00,34.3,11.3,30.45,WNW,296,4.0,7.0,38,0.00,,,0.01,meteohub,2013-01-18 20:39:00,
2013-01-18 15:41:00,34.3,12.0,30.45,WNW,292,2.0,7.0,39,0.00,,,0.01,meteohub,2013-01-18 20:41:00,
2013-01-18 15:42:00,34.2,11.1,30.46,NW,318,0.0,7.0,38,0.00,,,0.01,meteohub,2013-01-18 20:42:00,
2013-01-18 15:44:00,34.2,11.8,30.46,WNW,292,1.0,7.0,39,0.00,,,0.01,meteohub,2013-01-18 20:44:00,
2013-01-18 15:46:00,34.0,12.2,30.46,WNW,282,3.0,7.0,40,0.00,,,0.01,meteohub,2013-01-18 20:46:00,
2013-01-18 15:47:00,34.0,12.2,30.46,WSW,253,4.0,7.0,40,0.00,,,0.01,meteohub,2013-01-18 20:47:00,
2013-01-18 15:49:00,33.8,11.5,30.46,West,271,3.0,7.0,39,0.00,,,0.01,meteohub,2013-01-18 20:49:00,
2013-01-18 15:51:00,33.6,11.3,30.46,NW,304,4.0,7.0,39,0.00,,,0.01,meteohub,2013-01-18 20:51:00,
2013-01-18 15:52:00,33.4,11.1,30.46,WNW,290,3.0,7.0,39,0.00,,,0.01,meteohub,2013-01-18 20:52:00,
2013-01-18 15:54:00,33.4,11.7,30.46,WNW,292,0.0,7.0,40,0.00,,,0.01,meteohub,2013-01-18 20:54:00,
2013-01-18 15:56:00,33.4,12.2,30.46,WNW,303,1.0,7.0,41,0.00,,,0.01,meteohub,2013-01-18 20:56:00,
2013-01-18 15:57:00,33.4,12.2,30.46,North,0,1.0,7.0,41,0.00,,,0.01,meteohub,2013-01-18 20:57:00,
2013-01-18 15:59:00,33.6,11.8,30.46,North,351,1.0,7.0,40,0.00,,,0.01,meteohub,2013-01-18 20:59:00,
2013-01-18 16:00:00,33.6,11.8,30.46,WSW,245,0.0,7.0,40,0.00,,,0.01,meteohub,2013-01-18 21:00:00,
2013-01-18 16:02:00,33.8,11.5,30.46,WSW,254,0.0,7.0,39,0.00,,,0.01,meteohub,2013-01-18 21:02:00,
2013-01-18 16:03:00,33.8,11.5,30.46,WNW,291,0.0,7.0,39,0.00,,,0.01,meteohub,2013-01-18 21:03:00,
2013-01-18 16:04:00,33.8,11.5,30.46,WNW,284,1.0,7.0,39,0.00,,,0.01,meteohub,2013-01-18 21:04:00,
2013-01-18 16:05:00,33.8,11.5,30.46,WNW,293,0.0,7.0,39,0.00,,,0.01,meteohub,2013-01-18 21:05:00,
2013-01-18 16:07:00,34.0,12.2,30.46,WNW,298,0.0,6.0,40,0.00,,,0.01,meteohub,2013-01-18 21:07:00,
2013-01-18 16:08:00,34.0,12.2,30.46,WNW,285,1.0,6.0,40,0.00,,,0.01,meteohub,2013-01-18 21:08:00,
2013-01-18 16:09:00,34.0,12.2,30.46,North,9,1.0,6.0,40,0.00,,,0.01,meteohub,2013-01-18 21:09:00,
2013-01-18 16:10:00,34.0,12.2,30.46,NNE,17,0.0,6.0,40,0.00,,,0.01,meteohub,2013-01-18 21:10:00,
2013-01-18 16:12:00,34.0,11.7,30.47,WNW,290,0.0,6.0,39,0.00,,,0.01,meteohub,2013-01-18 21:12:00,
2013-01-18 16:13:00,34.0,11.7,30.47,WNW,290,1.0,6.0,39,0.00,,,0.01,meteohub,2013-01-18 21:13:00,
2013-01-18 16:15:00,34.0,11.7,30.47,WNW,288,3.0,6.0,39,0.00,,,0.01,meteohub,2013-01-18 21:15:00,
2013-01-18 16:17:00,34.0,11.7,30.47,WNW,283,3.0,6.0,39,0.00,,,0.01,meteohub,2013-01-18 21:17:00,
2013-01-18 16:19:00,33.8,11.5,30.47,West,269,3.0,6.0,39,0.00,,,0.01,meteohub,2013-01-18 21:19:00,
2013-01-18 16:20:00,33.6,11.3,30.47,West,265,3.0,6.0,39,0.00,,,0.01,meteohub,2013-01-18 21:20:00,
2013-01-18 16:22:00,33.4,11.7,30.48,West,267,3.0,6.0,40,0.00,,,0.01,meteohub,2013-01-18 21:22:00,
2013-01-18 16:24:00,33.4,11.7,30.47,WNW,288,3.0,6.0,40,0.00,,,0.01,meteohub,2013-01-18 21:24:00,
2013-01-18 16:26:00,33.3,11.5,30.48,West,281,4.0,7.0,40,0.00,,,0.01,meteohub,2013-01-18 21:26:00,
2013-01-18 16:28:00,33.1,12.0,30.48,West,279,2.0,7.0,41,0.00,,,0.01,meteohub,2013-01-18 21:28:00,
2013-01-18 16:29:00,32.9,11.8,30.48,WNW,290,3.0,7.0,41,0.00,,,0.01,meteohub,2013-01-18 21:29:00,
2013-01-18 16:31:00,32.7,11.7,30.48,WNW,303,6.0,7.0,41,0.00,,,0.01,meteohub,2013-01-18 21:31:00,
2013-01-18 16:33:00,32.5,11.5,30.48,WNW,291,2.0,7.0,41,0.00,,,0.01,meteohub,2013-01-18 21:33:00,
2013-01-18 16:34:00,32.5,11.5,30.48,WNW,290,5.0,7.0,41,0.00,,,0.01,meteohub,2013-01-18 21:34:00,
2013-01-18 16:36:00,32.5,12.0,30.48,WNW,292,2.0,7.0,42,0.00,,,0.01,meteohub,2013-01-18 21:36:00,
2013-01-18 16:37:00,32.5,12.0,30.48,West,275,4.0,7.0,42,0.00,,,0.01,meteohub,2013-01-18 21:37:00,
2013-01-18 16:38:00,32.4,11.8,30.48,WNW,287,5.0,7.0,42,0.00,,,0.01,meteohub,2013-01-18 21:38:00,
2013-01-18 16:41:00,32.2,12.7,30.48,NW,313,5.0,7.0,44,0.00,,,0.01,meteohub,2013-01-18 21:41:00,
2013-01-18 16:42:00,32.2,12.7,30.48,WNW,286,3.0,7.0,44,0.00,,,0.01,meteohub,2013-01-18 21:42:00,
2013-01-18 16:43:00,32.2,12.2,30.48,WNW,290,1.0,7.0,43,0.00,,,0.01,meteohub,2013-01-18 21:43:00,
2013-01-18 16:46:00,32.2,12.2,30.48,WNW,291,6.0,8.0,43,0.00,,,0.01,meteohub,2013-01-18 21:46:00,
2013-01-18 16:47:00,32.0,12.0,30.48,NW,307,4.0,8.0,43,0.00,,,0.01,meteohub,2013-01-18 21:47:00,
2013-01-18 16:48:00,32.0,12.0,30.48,WNW,292,2.0,8.0,43,0.00,,,0.01,meteohub,2013-01-18 21:48:00,
2013-01-18 16:51:00,31.8,11.8,30.48,West,281,2.0,8.0,43,0.00,,,0.01,meteohub,2013-01-18 21:51:00,
2013-01-18 16:52:00,31.8,11.8,30.48,WNW,294,5.0,8.0,43,0.00,,,0.01,meteohub,2013-01-18 21:52:00,
2013-01-18 16:53:00,31.6,12.2,30.48,WNW,288,4.0,8.0,44,0.00,,,0.01,meteohub,2013-01-18 21:53:00,
2013-01-18 16:57:00,31.6,11.7,30.48,WNW,289,0.0,8.0,43,0.00,,,0.01,meteohub,2013-01-18 21:57:00,
2013-01-18 16:58:00,31.6,11.7,30.48,West,260,3.0,8.0,43,0.00,,,0.01,meteohub,2013-01-18 21:58:00,
2013-01-18 16:59:00,31.5,11.5,30.48,West,266,0.0,8.0,43,0.00,,,0.01,meteohub,2013-01-18 21:59:00,
2013-01-18 17:02:00,31.5,12.0,30.49,WNW,288,2.0,8.0,44,0.00,,,0.01,meteohub,2013-01-18 22:02:00,
2013-01-18 17:03:00,31.5,12.0,30.49,WNW,288,1.0,8.0,44,0.00,,,0.01,meteohub,2013-01-18 22:03:00,
2013-01-18 17:04:00,31.3,12.4,30.49,WNW,292,3.0,8.0,45,0.00,,,0.01,meteohub,2013-01-18 22:04:00,
2013-01-18 17:07:00,31.3,11.8,30.49,West,276,0.0,6.0,44,0.00,,,0.01,meteohub,2013-01-18 22:07:00,
2013-01-18 17:08:00,31.3,12.4,30.49,WNW,290,2.0,6.0,45,0.00,,,0.01,meteohub,2013-01-18 22:08:00,
2013-01-18 17:10:00,31.3,12.4,30.48,West,271,1.0,6.0,45,0.00,,,0.01,meteohub,2013-01-18 22:10:00,
2013-01-18 17:13:00,30.9,12.6,30.49,WNW,293,2.0,6.0,46,0.00,,,0.01,meteohub,2013-01-18 22:13:00,
2013-01-18 17:14:00,30.9,12.6,30.49,WNW,293,2.0,6.0,46,0.00,,,0.01,meteohub,2013-01-18 22:14:00,
2013-01-18 17:15:00,30.9,13.1,30.49,WNW,287,3.0,6.0,47,0.00,,,0.01,meteohub,2013-01-18 22:15:00,
2013-01-18 17:19:00,30.9,13.1,30.49,WNW,290,3.0,6.0,47,0.00,,,0.01,meteohub,2013-01-18 22:19:00,
2013-01-18 17:20:00,30.9,13.1,30.49,WNW,291,3.0,6.0,47,0.00,,,0.01,meteohub,2013-01-18 22:20:00,
2013-01-18 17:24:00,30.7,12.4,30.49,West,281,2.0,6.0,46,0.00,,,0.01,meteohub,2013-01-18 22:24:00,
2013-01-18 17:25:00,30.7,12.4,30.49,WNW,287,2.0,6.0,46,0.00,,,0.01,meteohub,2013-01-18 22:25:00,
2013-01-18 17:29:00,30.7,12.4,30.49,WNW,296,0.0,6.0,46,0.00,,,0.01,meteohub,2013-01-18 22:29:00,
2013-01-18 17:30:00,30.7,12.4,30.49,WNW,296,2.0,6.0,46,0.00,,,0.01,meteohub,2013-01-18 22:30:00,
2013-01-18 17:31:00,30.7,12.4,30.49,West,268,1.0,6.0,46,0.00,,,0.01,meteohub,2013-01-18 22:31:00,
2013-01-18 17:34:00,30.7,11.8,30.50,WNW,282,0.0,6.0,45,0.00,,,0.01,meteohub,2013-01-18 22:34:00,
2013-01-18 17:35:00,30.7,12.4,30.50,WNW,282,3.0,5.0,46,0.00,,,0.01,meteohub,2013-01-18 22:35:00,
2013-01-18 17:36:00,30.7,12.4,30.50,WNW,296,4.0,5.0,46,0.00,,,0.01,meteohub,2013-01-18 22:36:00,
2013-01-18 17:39:00,30.7,12.4,30.50,WNW,296,1.0,5.0,46,0.00,,,0.01,meteohub,2013-01-18 22:39:00,
2013-01-18 17:40:00,30.7,12.4,30.50,WNW,296,2.0,4.0,46,0.00,,,0.01,meteohub,2013-01-18 22:40:00,
2013-01-18 17:41:00,30.7,12.4,30.50,WNW,296,1.0,4.0,46,0.00,,,0.01,meteohub,2013-01-18 22:41:00,
2013-01-18 17:45:00,30.6,13.3,30.50,WNW,284,0.0,4.0,48,0.00,,,0.01,meteohub,2013-01-18 22:45:00,
2013-01-18 17:46:00,30.6,13.3,30.50,WNW,287,3.0,4.0,48,0.00,,,0.01,meteohub,2013-01-18 22:46:00,
2013-01-18 17:47:00,30.6,13.3,30.50,WNW,288,2.0,4.0,48,0.00,,,0.01,meteohub,2013-01-18 22:47:00,
2013-01-18 17:50:00,30.6,13.3,30.51,West,275,2.0,4.0,48,0.00,,,0.01,meteohub,2013-01-18 22:50:00,
2013-01-18 17:51:00,30.6,13.3,30.51,West,278,4.0,4.0,48,0.00,,,0.01,meteohub,2013-01-18 22:51:00,
2013-01-18 17:52:00,30.6,12.7,30.51,West,280,1.0,4.0,47,0.00,,,0.01,meteohub,2013-01-18 22:52:00,
2013-01-18 17:55:00,30.6,12.2,30.51,WNW,288,1.0,4.0,46,0.00,,,0.01,meteohub,2013-01-18 22:55:00,
2013-01-18 17:56:00,30.6,12.7,30.51,WNW,290,3.0,4.0,47,0.00,,,0.01,meteohub,2013-01-18 22:56:00,
2013-01-18 17:57:00,30.6,12.7,30.51,WNW,291,2.0,4.0,47,0.00,,,0.01,meteohub,2013-01-18 22:57:00,
2013-01-18 18:00:00,30.6,12.7,30.51,WNW,286,1.0,4.0,47,0.00,,,0.01,meteohub,2013-01-18 23:00:00,
2013-01-18 18:01:00,30.6,12.7,30.51,WNW,286,1.0,4.0,47,0.00,,,0.01,meteohub,2013-01-18 23:01:00,
2013-01-18 18:02:00,30.4,12.6,30.51,WNW,286,0.0,4.0,47,0.00,,,0.01,meteohub,2013-01-18 23:02:00,
2013-01-18 18:05:00,30.4,12.6,30.51,WNW,286,3.0,4.0,47,0.00,,,0.01,meteohub,2013-01-18 23:05:00,
2013-01-18 18:07:00,30.4,12.6,30.51,WNW,286,3.0,4.0,47,0.00,,,0.01,meteohub,2013-01-18 23:07:00,
2013-01-18 18:10:00,30.4,12.6,30.51,WNW,286,1.0,4.0,47,0.00,,,0.01,meteohub,2013-01-18 23:10:00,
2013-01-18 18:12:00,30.4,12.6,30.51,WNW,286,0.0,4.0,47,0.00,,,0.01,meteohub,2013-01-18 23:12:00,
2013-01-18 18:13:00,30.4,12.6,30.51,WNW,286,1.0,4.0,47,0.00,,,0.01,meteohub,2013-01-18 23:13:00,
2013-01-18 18:16:00,30.4,12.6,30.51,WNW,286,0.0,3.0,47,0.00,,,0.01,meteohub,2013-01-18 23:16:00,
2013-01-18 18:17:00,30.4,12.6,30.51,WNW,286,1.0,3.0,47,0.00,,,0.01,meteohub,2013-01-18 23:17:00,
2013-01-18 18:18:00,30.4,12.6,30.51,WNW,286,1.0,3.0,47,0.00,,,0.01,meteohub,2013-01-18 23:18:00,
2013-01-18 18:21:00,30.4,12.0,30.51,WNW,286,0.0,3.0,46,0.00,,,0.01,meteohub,2013-01-18 23:21:00,
2013-01-18 18:22:00,30.4,12.0,30.51,WNW,286,0.0,3.0,46,0.00,,,0.01,meteohub,2013-01-18 23:22:00,
2013-01-18 18:23:00,30.4,12.0,30.51,WNW,286,0.0,3.0,46,0.00,,,0.01,meteohub,2013-01-18 23:23:00,
2013-01-18 18:27:00,30.4,12.0,30.51,West,262,0.0,3.0,46,0.00,,,0.01,meteohub,2013-01-18 23:27:00,
2013-01-18 18:28:00,30.4,12.0,30.51,West,262,0.0,3.0,46,0.00,,,0.01,meteohub,2013-01-18 23:28:00,
2013-01-18 18:32:00,30.4,12.0,30.52,WSW,257,1.0,3.0,46,0.00,,,0.01,meteohub,2013-01-18 23:32:00,
2013-01-18 18:33:00,30.4,12.0,30.52,WSW,257,0.0,3.0,46,0.00,,,0.01,meteohub,2013-01-18 23:33:00,
2013-01-18 18:37:00,30.4,12.0,30.52,WSW,257,0.0,3.0,46,0.00,,,0.01,meteohub,2013-01-18 23:37:00,
2013-01-18 18:38:00,30.4,12.0,30.51,WSW,257,0.0,3.0,46,0.00,,,0.01,meteohub,2013-01-18 23:38:00,
2013-01-18 18:43:00,30.2,12.4,30.52,WSW,257,0.0,3.0,47,0.00,,,0.01,meteohub,2013-01-18 23:43:00,
2013-01-18 18:44:00,30.2,12.4,30.52,WSW,257,0.0,3.0,47,0.00,,,0.01,meteohub,2013-01-18 23:44:00,
2013-01-18 18:48:00,30.0,12.7,30.52,WSW,257,0.0,2.0,48,0.00,,,0.01,meteohub,2013-01-18 23:48:00,
2013-01-18 18:49:00,30.0,13.1,30.52,WSW,257,0.0,2.0,49,0.00,,,0.01,meteohub,2013-01-18 23:49:00,
2013-01-18 18:53:00,30.0,12.7,30.51,WSW,257,0.0,1.0,48,0.00,,,0.01,meteohub,2013-01-18 23:53:00,
2013-01-18 18:54:00,29.8,12.6,30.51,WSW,257,0.0,1.0,48,0.00,,,0.01,meteohub,2013-01-18 23:54:00,
2013-01-18 18:58:00,29.8,12.6,30.52,WSW,257,0.0,1.0,48,0.00,,,0.01,meteohub,2013-01-18 23:58:00,
2013-01-18 18:59:00,29.8,12.9,30.52,WSW,257,0.0,1.0,49,0.00,,,0.01,meteohub,2013-01-18 23:59:00,
2013-01-18 19:00:00,29.8,13.5,30.52,WSW,257,0.0,1.0,50,0.00,,,0.01,meteohub,2013-01-19 00:00:00,
2013-01-18 19:03:00,29.8,13.5,30.52,WSW,257,0.0,1.0,50,0.00,,,0.01,meteohub,2013-01-19 00:03:00,
2013-01-18 19:05:00,29.7,13.3,30.52,WSW,257,0.0,1.0,50,0.00,,,0.01,meteohub,2013-01-19 00:05:00,
2013-01-18 19:09:00,29.7,13.8,30.51,WSW,257,0.0,1.0,51,0.00,,,0.01,meteohub,2013-01-19 00:09:00,
2013-01-18 19:10:00,29.7,13.8,30.51,WSW,257,0.0,1.0,51,0.00,,,0.01,meteohub,2013-01-19 00:10:00,
2013-01-18 19:11:00,29.7,14.2,30.51,WSW,257,0.0,0.0,52,0.00,,,0.01,meteohub,2013-01-19 00:11:00,
2013-01-18 19:14:00,29.5,13.6,30.51,WSW,257,0.0,0.0,51,0.00,,,0.01,meteohub,2013-01-19 00:14:00,
2013-01-18 19:15:00,29.5,13.6,30.51,WSW,257,0.0,0.0,51,0.00,,,0.01,meteohub,2013-01-19 00:15:00,
2013-01-18 19:16:00,29.5,13.1,30.52,WSW,257,0.0,0.0,50,0.00,,,0.01,meteohub,2013-01-19 00:16:00,
2013-01-18 19:20:00,29.5,13.1,30.51,WSW,257,0.0,0.0,50,0.00,,,0.01,meteohub,2013-01-19 00:20:00,
2013-01-18 19:21:00,29.5,13.1,30.51,WSW,257,0.0,1.0,50,0.00,,,0.01,meteohub,2013-01-19 00:21:00,
2013-01-18 19:22:00,29.5,13.1,30.51,WSW,257,0.0,1.0,50,0.00,,,0.01,meteohub,2013-01-19 00:22:00,
2013-01-18 19:25:00,29.3,13.5,30.52,WSW,257,0.0,1.0,51,0.00,,,0.01,meteohub,2013-01-19 00:25:00,
2013-01-18 19:26:00,29.3,13.5,30.52,WSW,257,0.0,1.0,51,0.00,,,0.01,meteohub,2013-01-19 00:26:00,
2013-01-18 19:27:00,29.1,13.6,30.52,WSW,257,0.0,1.0,52,0.00,,,0.01,meteohub,2013-01-19 00:27:00,
2013-01-18 19:30:00,29.1,14.2,30.51,WSW,257,0.0,1.0,53,0.00,,,0.01,meteohub,2013-01-19 00:30:00,
2013-01-18 19:32:00,29.1,14.2,30.51,WSW,257,0.0,1.0,53,0.00,,,0.01,meteohub,2013-01-19 00:32:00,
2013-01-18 19:35:00,28.9,14.4,30.51,WSW,257,0.0,1.0,54,0.00,,,0.01,meteohub,2013-01-19 00:35:00,
2013-01-18 19:36:00,28.9,14.4,30.52,WSW,257,0.0,1.0,54,0.00,,,0.01,meteohub,2013-01-19 00:36:00,
2013-01-18 19:37:00,28.9,14.4,30.52,WSW,257,0.0,1.0,54,0.00,,,0.01,meteohub,2013-01-19 00:37:00,
2013-01-18 19:40:00,28.9,14.0,30.51,WSW,257,0.0,1.0,53,0.00,,,0.01,meteohub,2013-01-19 00:40:00,
2013-01-18 19:41:00,28.8,13.8,30.51,WSW,257,0.0,1.0,53,0.00,,,0.01,meteohub,2013-01-19 00:41:00,
2013-01-18 19:42:00,28.8,14.2,30.51,WSW,257,0.0,1.0,54,0.00,,,0.01,meteohub,2013-01-19 00:42:00,
2013-01-18 19:45:00,28.8,14.7,30.51,WSW,257,0.0,1.0,55,0.00,,,0.01,meteohub,2013-01-19 00:45:00,
2013-01-18 19:46:00,28.8,14.7,30.51,WSW,257,0.0,1.0,55,0.00,,,0.01,meteohub,2013-01-19 00:46:00,
2013-01-18 19:47:00,28.8,14.7,30.51,WSW,257,0.0,1.0,55,0.00,,,0.01,meteohub,2013-01-19 00:47:00,
2013-01-18 19:50:00,28.6,14.5,30.51,WSW,257,0.0,0.0,55,0.00,,,0.01,meteohub,2013-01-19 00:50:00,
2013-01-18 19:52:00,28.6,14.5,30.51,WSW,257,0.0,0.0,55,0.00,,,0.01,meteohub,2013-01-19 00:52:00,
2013-01-18 19:53:00,28.6,14.5,30.51,WSW,257,0.0,0.0,55,0.00,,,0.01,meteohub,2013-01-19 00:53:00,
2013-01-18 19:55:00,28.4,13.5,30.51,WSW,257,0.0,0.0,53,0.00,,,0.01,meteohub,2013-01-19 00:55:00,
2013-01-18 19:57:00,28.6,13.1,30.51,WSW,257,0.0,0.0,52,0.00,,,0.01,meteohub,2013-01-19 00:57:00,
2013-01-18 19:58:00,28.6,13.1,30.51,WSW,257,0.0,0.0,52,0.00,,,0.01,meteohub,2013-01-19 00:58:00,
2013-01-18 19:59:00,28.6,13.1,30.51,WSW,257,0.0,0.0,52,0.00,,,0.01,meteohub,2013-01-19 00:59:00,
2013-01-18 20:00:00,28.6,13.1,30.51,WSW,257,0.0,0.0,52,0.00,,,0.01,meteohub,2013-01-19 01:00:00,
2013-01-18 20:02:00,28.6,12.7,30.51,WSW,257,0.0,0.0,51,0.00,,,0.01,meteohub,2013-01-19 01:02:00,
2013-01-18 20:03:00,28.6,12.7,30.51,WSW,257,0.0,0.0,51,0.00,,,0.01,meteohub,2013-01-19 01:03:00,
2013-01-18 20:04:00,28.8,12.9,30.51,WSW,257,0.0,0.0,51,0.00,,,0.01,meteohub,2013-01-19 01:04:00,
2013-01-18 20:05:00,28.8,12.9,30.51,WSW,257,0.0,0.0,51,0.00,,,0.01,meteohub,2013-01-19 01:05:00,
2013-01-18 20:07:00,28.8,13.3,30.51,WSW,257,0.0,0.0,52,0.00,,,0.01,meteohub,2013-01-19 01:07:00,
2013-01-18 20:08:00,28.6,13.1,30.51,WSW,257,0.0,0.0,52,0.00,,,0.01,meteohub,2013-01-19 01:08:00,
2013-01-18 20:09:00,28.6,13.6,30.51,WSW,257,0.0,0.0,53,0.00,,,0.01,meteohub,2013-01-19 01:09:00,
2013-01-18 20:10:00,28.6,13.6,30.51,WSW,257,0.0,0.0,53,0.00,,,0.01,meteohub,2013-01-19 01:10:00,
2013-01-18 20:13:00,28.6,14.0,30.51,WSW,257,0.0,0.0,54,0.00,,,0.01,meteohub,2013-01-19 01:13:00,
2013-01-18 20:14:00,28.6,14.0,30.51,WSW,257,0.0,0.0,54,0.00,,,0.01,meteohub,2013-01-19 01:14:00,
2013-01-18 20:16:00,28.6,14.0,30.51,WSW,257,0.0,0.0,54,0.00,,,0.01,meteohub,2013-01-19 01:16:00,
2013-01-18 20:18:00,28.4,14.4,30.51,WSW,257,0.0,0.0,55,0.00,,,0.01,meteohub,2013-01-19 01:18:00,
2013-01-18 20:20:00,28.4,13.8,30.51,WSW,257,0.0,0.0,54,0.00,,,0.01,meteohub,2013-01-19 01:20:00,
2013-01-18 20:22:00,28.6,14.0,30.50,WSW,257,1.0,0.0,54,0.00,,,0.01,meteohub,2013-01-19 01:22:00,
2013-01-18 20:23:00,28.6,14.0,30.51,WSW,257,1.0,0.0,54,0.00,,,0.01,meteohub,2013-01-19 01:23:00,
2013-01-18 20:25:00,28.8,14.2,30.51,WSW,257,1.0,2.0,54,0.00,,,0.01,meteohub,2013-01-19 01:25:00,
2013-01-18 20:27:00,28.8,13.8,30.50,WSW,252,3.0,3.0,53,0.00,,,0.01,meteohub,2013-01-19 01:27:00,
2013-01-18 20:28:00,28.8,13.8,30.51,WSW,252,1.0,2.0,53,0.00,,,0.01,meteohub,2013-01-19 01:28:00,
2013-01-18 20:29:00,28.9,14.0,30.50,WSW,252,1.0,2.0,53,0.00,,,0.01,meteohub,2013-01-19 01:29:00,
2013-01-18 20:30:00,28.9,14.0,30.50,WSW,251,0.0,3.0,53,0.00,,,0.01,meteohub,2013-01-19 01:30:00,
2013-01-18 20:32:00,29.1,14.2,30.50,WSW,238,1.0,3.0,53,0.00,,,0.01,meteohub,2013-01-19 01:32:00,
2013-01-18 20:34:00,29.1,14.2,30.50,SSW,213,2.0,3.0,53,0.00,,,0.01,meteohub,2013-01-19 01:34:00,
2013-01-18 20:35:00,29.1,13.6,30.50,SW,215,2.0,3.0,52,0.00,,,0.01,meteohub,2013-01-19 01:35:00,
2013-01-18 20:36:00,29.3,13.8,30.50,SW,227,2.0,4.0,52,0.00,,,0.01,meteohub,2013-01-19 01:36:00,
2013-01-18 20:38:00,29.5,13.6,30.50,WSW,244,2.0,4.0,51,0.00,,,0.01,meteohub,2013-01-19 01:38:00,
2013-01-18 20:39:00,29.7,13.8,30.50,SW,223,2.0,4.0,51,0.00,,,0.01,meteohub,2013-01-19 01:39:00,
2013-01-18 20:40:00,29.7,13.8,30.50,SW,229,3.0,4.0,51,0.00,,,0.01,meteohub,2013-01-19 01:40:00,
2013-01-18 20:41:00,29.7,13.8,30.50,SW,224,2.0,4.0,51,0.00,,,0.01,meteohub,2013-01-19 01:41:00,
2013-01-18 20:43:00,29.8,13.5,30.50,SW,226,1.0,4.0,50,0.00,,,0.01,meteohub,2013-01-19 01:43:00,
2013-01-18 20:45:00,29.8,13.5,30.50,SW,234,2.0,4.0,50,0.00,,,0.01,meteohub,2013-01-19 01:45:00,
2013-01-18 20:46:00,30.0,13.6,30.50,SW,236,2.0,4.0,50,0.00,,,0.01,meteohub,2013-01-19 01:46:00,
2013-01-18 20:48:00,30.0,13.6,30.50,SW,236,2.0,4.0,50,0.00,,,0.01,meteohub,2013-01-19 01:48:00,
2013-01-18 20:50:00,30.2,13.8,30.50,SW,214,4.0,4.0,50,0.00,,,0.01,meteohub,2013-01-19 01:50:00,
2013-01-18 20:51:00,30.2,13.8,30.50,SW,224,2.0,4.0,50,0.00,,,0.01,meteohub,2013-01-19 01:51:00,
2013-01-18 20:53:00,30.2,13.8,30.50,SW,232,2.0,4.0,50,0.00,,,0.01,meteohub,2013-01-19 01:53:00,
2013-01-18 20:55:00,30.4,14.0,30.50,SW,221,2.0,4.0,50,0.00,,,0.01,meteohub,2013-01-19 01:55:00,
2013-01-18 20:56:00,30.4,14.0,30.50,SW,221,2.0,4.0,50,0.00,,,0.01,meteohub,2013-01-19 01:56:00,
2013-01-18 20:57:00,30.4,14.0,30.50,SW,229,3.0,4.0,50,0.00,,,0.01,meteohub,2013-01-19 01:57:00,
2013-01-18 20:58:00,30.4,14.0,30.50,SW,232,2.0,4.0,50,0.00,,,0.01,meteohub,2013-01-19 01:58:00,
2013-01-18 21:00:00,30.4,14.0,30.50,WSW,246,5.0,5.0,50,0.00,,,0.01,meteohub,2013-01-19 02:00:00,
2013-01-18 21:01:00,30.4,14.0,30.50,SW,236,3.0,7.0,50,0.00,,,0.01,meteohub,2013-01-19 02:01:00,
2013-01-18 21:02:00,30.4,14.0,30.50,WSW,245,3.0,7.0,50,0.00,,,0.01,meteohub,2013-01-19 02:02:00,
2013-01-18 21:03:00,30.6,14.2,30.50,SW,230,2.0,7.0,50,0.00,,,0.01,meteohub,2013-01-19 02:03:00,
2013-01-18 21:05:00,30.6,14.2,30.50,SSW,204,3.0,7.0,50,0.00,,,0.01,meteohub,2013-01-19 02:05:00,
2013-01-18 21:07:00,30.6,14.2,30.50,SSW,208,2.0,7.0,50,0.00,,,0.01,meteohub,2013-01-19 02:07:00,
2013-01-18 21:08:00,30.6,14.2,30.49,SSW,213,2.0,7.0,50,0.00,,,0.01,meteohub,2013-01-19 02:08:00,
2013-01-18 21:10:00,30.6,14.2,30.49,SW,224,2.0,7.0,50,0.00,,,0.01,meteohub,2013-01-19 02:10:00,
2013-01-18 21:12:00,30.7,14.4,30.49,WSW,255,2.0,7.0,50,0.00,,,0.01,meteohub,2013-01-19 02:12:00,
2013-01-18 21:14:00,30.7,14.4,30.49,SW,221,2.0,7.0,50,0.00,,,0.01,meteohub,2013-01-19 02:14:00,
2013-01-18 21:16:00,30.7,14.4,30.49,SSW,201,2.0,5.0,50,0.00,,,0.01,meteohub,2013-01-19 02:16:00,
2013-01-18 21:17:00,30.7,14.4,30.49,SW,228,2.0,5.0,50,0.00,,,0.01,meteohub,2013-01-19 02:17:00,
2013-01-18 21:18:00,30.7,14.4,30.49,SW,229,2.0,5.0,50,0.00,,,0.01,meteohub,2013-01-19 02:18:00,
2013-01-18 21:19:00,30.7,14.7,30.49,SW,219,2.0,5.0,51,0.00,,,0.01,meteohub,2013-01-19 02:19:00,
2013-01-18 21:22:00,30.7,14.7,30.49,SW,235,2.0,5.0,51,0.00,,,0.01,meteohub,2013-01-19 02:22:00,
2013-01-18 21:23:00,30.7,14.7,30.49,SW,236,3.0,5.0,51,0.00,,,0.01,meteohub,2013-01-19 02:23:00,
2013-01-18 21:24:00,30.9,14.9,30.49,SSW,211,4.0,5.0,51,0.00,,,0.01,meteohub,2013-01-19 02:24:00,
2013-01-18 21:28:00,31.1,15.1,30.49,SW,219,2.0,5.0,51,0.00,,,0.01,meteohub,2013-01-19 02:28:00,
2013-01-18 21:29:00,31.1,15.1,30.49,SW,223,3.0,5.0,51,0.00,,,0.01,meteohub,2013-01-19 02:29:00,
2013-01-18 21:33:00,31.3,15.3,30.49,SSW,202,3.0,7.0,51,0.00,,,0.01,meteohub,2013-01-19 02:33:00,
2013-01-18 21:34:00,31.3,15.3,30.49,SW,217,3.0,7.0,51,0.00,,,0.01,meteohub,2013-01-19 02:34:00,
2013-01-18 21:35:00,31.3,15.3,30.49,WSW,238,3.0,7.0,51,0.00,,,0.01,meteohub,2013-01-19 02:35:00,
2013-01-18 21:38:00,31.5,15.8,30.49,SW,229,6.0,7.0,52,0.00,,,0.01,meteohub,2013-01-19 02:38:00,
2013-01-18 21:39:00,31.5,15.8,30.49,SW,229,4.0,7.0,52,0.00,,,0.01,meteohub,2013-01-19 02:39:00,
2013-01-18 21:40:00,31.5,15.8,30.49,SW,232,7.0,7.0,52,0.00,,,0.01,meteohub,2013-01-19 02:40:00,
2013-01-18 21:41:00,31.6,15.6,30.49,SW,234,6.0,9.0,51,0.00,,,0.01,meteohub,2013-01-19 02:41:00,
2013-01-18 21:43:00,31.8,15.8,30.49,WSW,258,5.0,9.0,51,0.00,,,0.01,meteohub,2013-01-19 02:43:00,
2013-01-18 21:44:00,31.8,15.8,30.49,WSW,238,7.0,9.0,51,0.00,,,0.01,meteohub,2013-01-19 02:44:00,
2013-01-18 21:45:00,32.0,16.0,30.49,SSW,200,6.0,9.0,51,0.00,,,0.01,meteohub,2013-01-19 02:45:00,
2013-01-18 21:46:00,32.0,16.0,30.49,WSW,251,4.0,10.0,51,0.00,,,0.01,meteohub,2013-01-19 02:46:00,
2013-01-18 21:49:00,32.2,16.2,30.49,West,259,7.0,10.0,51,0.00,,,0.01,meteohub,2013-01-19 02:49:00,
2013-01-18 21:50:00,32.2,16.2,30.49,WSW,257,7.0,10.0,51,0.00,,,0.01,meteohub,2013-01-19 02:50:00,
2013-01-18 21:51:00,32.2,16.2,30.49,WSW,240,10.0,10.0,51,0.00,,,0.01,meteohub,2013-01-19 02:51:00,
2013-01-18 21:54:00,32.4,15.8,30.49,SW,236,7.0,10.0,50,0.00,,,0.01,meteohub,2013-01-19 02:54:00,
2013-01-18 21:55:00,32.4,15.8,30.49,WSW,250,4.0,10.0,50,0.00,,,0.01,meteohub,2013-01-19 02:55:00,
2013-01-18 21:56:00,32.4,15.8,30.49,WSW,243,6.0,10.0,50,0.00,,,0.01,meteohub,2013-01-19 02:56:00,
2013-01-18 21:59:00,32.4,16.7,30.49,WSW,247,5.0,10.0,52,0.00,,,0.01,meteohub,2013-01-19 02:59:00,
2013-01-18 22:00:00,32.4,16.7,30.49,SSW,213,5.0,11.0,52,0.00,,,0.01,meteohub,2013-01-19 03:00:00,
2013-01-18 22:01:00,32.4,16.7,30.49,SW,223,5.0,11.0,52,0.00,,,0.01,meteohub,2013-01-19 03:01:00,
2013-01-18 22:05:00,32.4,17.1,30.49,WSW,246,7.0,11.0,53,0.00,,,0.01,meteohub,2013-01-19 03:05:00,
2013-01-18 22:06:00,32.4,17.1,30.49,SW,234,4.0,11.0,53,0.00,,,0.01,meteohub,2013-01-19 03:06:00,
2013-01-18 22:07:00,32.4,17.1,30.49,SW,214,4.0,11.0,53,0.00,,,0.01,meteohub,2013-01-19 03:07:00,
2013-01-18 22:10:00,32.4,17.1,30.49,WSW,241,7.0,11.0,53,0.00,,,0.01,meteohub,2013-01-19 03:10:00,
2013-01-18 22:11:00,32.4,17.1,30.49,West,261,6.0,11.0,53,0.00,,,0.01,meteohub,2013-01-19 03:11:00,
2013-01-18 22:12:00,32.5,17.8,30.49,SW,229,4.0,11.0,54,0.00,,,0.01,meteohub,2013-01-19 03:12:00,
2013-01-18 22:15:00,32.4,17.6,30.49,WSW,240,4.0,10.0,54,0.00,,,0.01,meteohub,2013-01-19 03:15:00,
2013-01-18 22:16:00,32.4,17.6,30.49,WSW,248,7.0,10.0,54,0.00,,,0.01,meteohub,2013-01-19 03:16:00,
2013-01-18 22:17:00,32.4,17.6,30.49,WSW,244,5.0,10.0,54,0.00,,,0.01,meteohub,2013-01-19 03:17:00,
2013-01-18 22:18:00,32.4,18.0,30.49,SW,230,5.0,10.0,55,0.00,,,0.01,meteohub,2013-01-19 03:18:00,
2013-01-18 22:21:00,32.4,18.0,30.49,WSW,238,5.0,10.0,55,0.00,,,0.01,meteohub,2013-01-19 03:21:00,
2013-01-18 22:23:00,32.4,17.6,30.48,WSW,237,5.0,10.0,54,0.00,,,0.01,meteohub,2013-01-19 03:23:00,
2013-01-18 22:26:00,32.4,17.6,30.48,WSW,242,5.0,10.0,54,0.00,,,0.01,meteohub,2013-01-19 03:26:00,
2013-01-18 22:27:00,32.4,17.6,30.48,SSW,209,5.0,10.0,54,0.00,,,0.01,meteohub,2013-01-19 03:27:00,
2013-01-18 22:28:00,32.4,17.6,30.48,SW,228,7.0,10.0,54,0.00,,,0.01,meteohub,2013-01-19 03:28:00,
2013-01-18 22:32:00,32.5,17.8,30.48,SW,227,2.0,10.0,54,0.00,,,0.01,meteohub,2013-01-19 03:32:00,
2013-01-18 22:33:00,32.5,17.8,30.48,SSW,212,5.0,10.0,54,0.00,,,0.01,meteohub,2013-01-19 03:33:00,
2013-01-18 22:37:00,32.5,17.8,30.48,SSW,206,5.0,10.0,54,0.00,,,0.01,meteohub,2013-01-19 03:37:00,
2013-01-18 22:38:00,32.4,17.6,30.48,SW,225,3.0,10.0,54,0.00,,,0.01,meteohub,2013-01-19 03:38:00,
2013-01-18 22:39:00,32.4,17.6,30.48,SW,219,4.0,10.0,54,0.00,,,0.01,meteohub,2013-01-19 03:39:00,
2013-01-18 22:42:00,32.4,18.5,30.47,SW,232,2.0,10.0,56,0.00,,,0.01,meteohub,2013-01-19 03:42:00,
2013-01-18 22:44:00,32.4,18.5,30.47,SW,222,2.0,10.0,56,0.00,,,0.01,meteohub,2013-01-19 03:44:00,
2013-01-18 22:45:00,32.4,18.5,30.47,SW,216,3.0,10.0,56,0.00,,,0.01,meteohub,2013-01-19 03:45:00,
2013-01-18 22:47:00,32.2,18.3,30.47,SSW,211,4.0,10.0,56,0.00,,,0.01,meteohub,2013-01-19 03:47:00,
2013-01-18 22:48:00,32.2,18.3,30.47,SW,219,1.0,10.0,56,0.00,,,0.01,meteohub,2013-01-19 03:48:00,
2013-01-18 22:49:00,32.2,18.3,30.47,SW,228,1.0,10.0,56,0.00,,,0.01,meteohub,2013-01-19 03:49:00,
2013-01-18 22:50:00,32.2,18.3,30.47,WSW,244,1.0,10.0,56,0.00,,,0.01,meteohub,2013-01-19 03:50:00,
2013-01-18 22:52:00,32.0,18.1,30.47,SSW,198,4.0,7.0,56,0.00,,,0.01,meteohub,2013-01-19 03:52:00,
2013-01-18 22:53:00,32.2,18.3,30.47,SW,223,2.0,7.0,56,0.00,,,0.01,meteohub,2013-01-19 03:53:00,
2013-01-18 22:55:00,32.0,18.1,30.47,SW,227,4.0,7.0,56,0.00,,,0.01,meteohub,2013-01-19 03:55:00,
2013-01-18 22:58:00,32.0,18.1,30.47,SW,230,3.0,7.0,56,0.00,,,0.01,meteohub,2013-01-19 03:58:00,
2013-01-18 23:00:00,32.0,18.1,30.47,South,191,2.0,7.0,56,0.00,,,0.01,meteohub,2013-01-19 04:00:00,
2013-01-18 23:03:00,31.8,18.0,30.47,WSW,241,4.0,7.0,56,0.00,,,0.01,meteohub,2013-01-19 04:03:00,
2013-01-18 23:04:00,31.8,18.3,30.47,SW,217,4.0,7.0,57,0.00,,,0.01,meteohub,2013-01-19 04:04:00,
2013-01-18 23:05:00,31.8,18.3,30.47,WSW,237,3.0,7.0,57,0.00,,,0.01,meteohub,2013-01-19 04:05:00,
2013-01-18 23:09:00,31.8,18.3,30.47,SSW,212,3.0,7.0,57,0.00,,,0.01,meteohub,2013-01-19 04:09:00,
2013-01-18 23:10:00,31.8,18.3,30.47,SW,219,3.0,7.0,57,0.00,,,0.01,meteohub,2013-01-19 04:10:00,
2013-01-18 23:14:00,31.6,18.1,30.47,SSW,213,3.0,7.0,57,0.00,,,0.01,meteohub,2013-01-19 04:14:00,
2013-01-18 23:15:00,31.6,18.1,30.47,SSW,213,4.0,7.0,57,0.00,,,0.01,meteohub,2013-01-19 04:15:00,
2013-01-18 23:16:00,31.6,18.1,30.47,SW,216,2.0,7.0,57,0.00,,,0.01,meteohub,2013-01-19 04:16:00,
2013-01-18 23:19:00,31.6,18.1,30.46,SW,223,3.0,7.0,57,0.00,,,0.01,meteohub,2013-01-19 04:19:00,
2013-01-18 23:20:00,31.6,18.1,30.47,SSW,196,6.0,8.0,57,0.00,,,0.01,meteohub,2013-01-19 04:20:00,
2013-01-18 23:21:00,31.8,18.3,30.46,SW,217,4.0,8.0,57,0.00,,,0.01,meteohub,2013-01-19 04:21:00,
2013-01-18 23:24:00,31.8,18.0,30.46,SW,234,3.0,8.0,56,0.00,,,0.01,meteohub,2013-01-19 04:24:00,
2013-01-18 23:25:00,31.8,18.0,30.46,SSW,207,5.0,8.0,56,0.00,,,0.01,meteohub,2013-01-19 04:25:00,
2013-01-18 23:27:00,31.8,17.4,30.46,SW,227,6.0,8.0,55,0.00,,,0.01,meteohub,2013-01-19 04:27:00,
2013-01-18 23:29:00,31.8,17.4,30.46,SSW,209,3.0,8.0,55,0.00,,,0.01,meteohub,2013-01-19 04:29:00,
2013-01-18 23:30:00,31.8,17.4,30.46,SSW,211,4.0,9.0,55,0.00,,,0.01,meteohub,2013-01-19 04:30:00,
2013-01-18 23:31:00,31.8,17.4,30.46,SSW,207,4.0,9.0,55,0.00,,,0.01,meteohub,2013-01-19 04:31:00,
2013-01-18 23:32:00,31.8,17.1,30.46,SW,222,6.0,9.0,54,0.00,,,0.01,meteohub,2013-01-19 04:32:00,
2013-01-18 23:35:00,31.6,16.5,30.46,SW,217,4.0,9.0,53,0.00,,,0.01,meteohub,2013-01-19 04:35:00,
2013-01-18 23:36:00,31.6,16.0,30.46,WSW,245,2.0,9.0,52,0.00,,,0.01,meteohub,2013-01-19 04:36:00,
2013-01-18 23:37:00,31.6,16.0,30.46,SW,217,5.0,9.0,52,0.00,,,0.01,meteohub,2013-01-19 04:37:00,
2013-01-18 23:40:00,31.8,15.8,30.46,SW,214,3.0,9.0,51,0.00,,,0.01,meteohub,2013-01-19 04:40:00,
2013-01-18 23:41:00,31.8,16.2,30.46,SW,234,6.0,9.0,52,0.00,,,0.01,meteohub,2013-01-19 04:41:00,
2013-01-18 23:42:00,31.8,16.2,30.46,SSW,202,3.0,9.0,52,0.00,,,0.01,meteohub,2013-01-19 04:42:00,
2013-01-18 23:46:00,31.8,16.7,30.45,SSW,204,5.0,9.0,53,0.00,,,0.01,meteohub,2013-01-19 04:46:00,
2013-01-18 23:47:00,31.8,16.7,30.46,WSW,254,4.0,9.0,53,0.00,,,0.01,meteohub,2013-01-19 04:47:00,
2013-01-18 23:48:00,31.8,16.7,30.46,SW,227,3.0,9.0,53,0.00,,,0.01,meteohub,2013-01-19 04:48:00,
2013-01-18 23:51:00,32.0,16.9,30.46,SW,234,6.0,10.0,53,0.00,,,0.01,meteohub,2013-01-19 04:51:00,
2013-01-18 23:52:00,32.2,17.1,30.46,SSW,207,4.0,10.0,53,0.00,,,0.01,meteohub,2013-01-19 04:52:00,
2013-01-18 23:53:00,32.2,17.1,30.46,SSW,208,4.0,10.0,53,0.00,,,0.01,meteohub,2013-01-19 04:53:00,
2013-01-18 23:56:00,32.2,17.4,30.46,SSW,202,6.0,10.0,54,0.00,,,0.01,meteohub,2013-01-19 04:56:00,
2013-01-18 23:57:00,32.2,17.4,30.46,SSW,210,3.0,10.0,54,0.00,,,0.01,meteohub,2013-01-19 04:57:00,
2013-01-18 23:58:00,32.2,17.4,30.45,SSW,207,2.0,10.0,54,0.00,,,0.01,meteohub,2013-01-19 04:58:00,